Time,TemperatureF,DewpointF,PressureIn,WindDirection,WindDirectionDegrees,WindSpeedMPH,WindSpeedGustMPH,Humidity,HourlyPrecipIn,Conditions,Clouds,dailyrainin,SoftwareType,DateUTC
2013-07-21 00:00:00,72.8,66.3,29.81,NNW,330,0.0,2.0,80,0.00,,,0.00,Wunderground v.1.15,2013-07-21 04:00:00,
2013-07-21 00:05:00,72.7,66.2,29.81,NNW,330,0.0,3.0,80,0.00,,,0.00,Wunderground v.1.15,2013-07-21 04:05:00,
2013-07-21 00:06:00,72.7,66.2,29.81,NNW,330,3.0,3.0,80,0.00,,,0.00,Wunderground v.1.15,2013-07-21 04:06:00,
2013-07-21 00:07:00,72.7,66.2,29.81,NNW,334,2.0,3.0,80,0.00,,,0.00,Wunderground v.1.15,2013-07-21 04:07:00,
2013-07-21 00:10:00,72.6,66.1,29.81,NNW,334,0.0,3.0,80,0.00,,,0.00,Wunderground v.1.15,2013-07-21 04:10:00,
2013-07-21 00:11:00,72.6,66.1,29.82,NNW,334,1.0,3.0,80,0.00,,,0.00,Wunderground v.1.15,2013-07-21 04:11:00,
2013-07-21 00:12:00,72.6,66.1,29.82,NNW,334,1.0,3.0,80,0.00,,,0.00,Wunderground v.1.15,2013-07-21 04:12:00,
2013-07-21 00:15:00,72.5,66.0,29.82,NNW,334,1.0,2.0,80,0.00,,,0.00,Wunderground v.1.15,2013-07-21 04:15:00,
2013-07-21 00:17:00,72.5,66.0,29.82,West,273,3.0,3.0,80,0.00,,,0.00,Wunderground v.1.15,2013-07-21 04:17:00,
2013-07-21 00:20:00,72.6,66.1,29.82,NNW,328,2.0,4.0,80,0.00,,,0.00,Wunderground v.1.15,2013-07-21 04:20:00,
2013-07-21 00:21:00,72.6,66.1,29.82,NNW,328,4.0,4.0,80,0.00,,,0.00,Wunderground v.1.15,2013-07-21 04:21:00,
2013-07-21 00:22:00,72.6,65.7,29.82,NW,318,2.0,4.0,79,0.00,,,0.00,Wunderground v.1.15,2013-07-21 04:22:00,
2013-07-21 00:26:00,72.8,65.9,29.82,NW,315,3.0,3.0,79,0.00,,,0.00,Wunderground v.1.15,2013-07-21 04:26:00,
2013-07-21 00:27:00,72.8,65.9,29.82,North,5,4.0,4.0,79,0.00,,,0.00,Wunderground v.1.15,2013-07-21 04:27:00,
2013-07-21 00:28:00,72.9,66.0,29.82,NW,308,3.0,4.0,79,0.00,,,0.00,Wunderground v.1.15,2013-07-21 04:28:00,
2013-07-21 00:30:00,73.0,66.1,29.82,NW,324,3.0,4.0,79,0.00,,,0.00,Wunderground v.1.15,2013-07-21 04:30:00,
2013-07-21 00:31:00,73.1,66.2,29.82,NNW,333,5.0,5.0,79,0.00,,,0.00,Wunderground v.1.15,2013-07-21 04:31:00,
2013-07-21 00:33:00,73.1,65.8,29.83,NW,310,4.0,5.0,78,0.00,,,0.00,Wunderground v.1.15,2013-07-21 04:33:00,
2013-07-21 00:34:00,73.1,65.8,29.83,West,259,6.0,6.0,78,0.00,,,0.00,Wunderground v.1.15,2013-07-21 04:34:00,
2013-07-21 00:38:00,73.1,66.2,29.83,NW,314,5.0,6.0,79,0.00,,,0.00,Wunderground v.1.15,2013-07-21 04:38:00,
2013-07-21 00:41:00,73.1,66.2,29.83,WSW,246,4.0,6.0,79,0.00,,,0.00,Wunderground v.1.15,2013-07-21 04:41:00,
2013-07-21 00:43:00,73.0,66.1,29.83,NNW,327,3.0,6.0,79,0.00,,,0.00,Wunderground v.1.15,2013-07-21 04:43:00,
2013-07-21 00:45:00,73.0,66.1,29.82,NW,309,2.0,7.0,79,0.00,,,0.00,Wunderground v.1.15,2013-07-21 04:45:00,
2013-07-21 00:46:00,73.0,66.1,29.82,WNW,288,4.0,7.0,79,0.00,,,0.00,Wunderground v.1.15,2013-07-21 04:46:00,
2013-07-21 00:51:00,72.9,66.0,29.82,NNW,329,3.0,7.0,79,0.00,,,0.00,Wunderground v.1.15,2013-07-21 04:51:00,
2013-07-21 00:52:00,72.9,66.0,29.82,NW,308,5.0,7.0,79,0.00,,,0.00,Wunderground v.1.15,2013-07-21 04:52:00,
2013-07-21 00:53:00,72.8,65.9,29.82,WNW,294,2.0,7.0,79,0.00,,,0.00,Wunderground v.1.15,2013-07-21 04:53:00,
2013-07-21 00:54:00,72.8,65.9,29.82,WNW,294,3.0,3.0,79,0.00,,,0.00,Wunderground v.1.15,2013-07-21 04:54:00,
2013-07-21 00:55:00,72.7,66.2,29.82,WNW,294,0.0,3.0,80,0.00,,,0.00,Wunderground v.1.15,2013-07-21 04:55:00,
2013-07-21 00:58:00,72.5,66.0,29.83,NW,304,2.0,3.0,80,0.00,,,0.00,Wunderground v.1.15,2013-07-21 04:58:00,
2013-07-21 01:00:00,72.4,65.9,29.83,NW,305,1.0,3.0,80,0.00,,,0.00,Wunderground v.1.15,2013-07-21 05:00:00,
2013-07-21 01:01:00,72.3,65.8,29.82,NW,305,0.0,3.0,80,0.00,,,0.00,Wunderground v.1.15,2013-07-21 05:01:00,
2013-07-21 01:03:00,72.2,66.0,29.82,NW,305,1.0,3.0,81,0.00,,,0.00,Wunderground v.1.15,2013-07-21 05:03:00,
2013-07-21 01:05:00,72.0,65.8,29.82,NW,314,1.0,2.0,81,0.00,,,0.00,Wunderground v.1.15,2013-07-21 05:05:00,
2013-07-21 01:09:00,71.7,65.6,29.82,NW,312,3.0,3.0,81,0.00,,,0.00,Wunderground v.1.15,2013-07-21 05:09:00,
2013-07-21 01:10:00,71.6,65.5,29.83,NW,312,1.0,3.0,81,0.00,,,0.00,Wunderground v.1.15,2013-07-21 05:10:00,
2013-07-21 01:11:00,71.6,65.5,29.83,NW,312,2.0,3.0,81,0.00,,,0.00,Wunderground v.1.15,2013-07-21 05:11:00,
2013-07-21 01:12:00,71.5,65.7,29.83,NW,312,0.0,3.0,82,0.00,,,0.00,Wunderground v.1.15,2013-07-21 05:12:00,
2013-07-21 01:18:00,71.1,65.3,29.83,NW,312,1.0,2.0,82,0.00,,,0.00,Wunderground v.1.15,2013-07-21 05:18:00,
2013-07-21 01:19:00,71.1,65.7,29.83,NW,312,0.0,2.0,83,0.00,,,0.00,Wunderground v.1.15,2013-07-21 05:19:00,
2013-07-21 01:20:00,71.0,65.6,29.83,NW,312,0.0,2.0,83,0.00,,,0.00,Wunderground v.1.15,2013-07-21 05:20:00,
2013-07-21 01:22:00,70.9,65.5,29.83,NW,312,0.0,2.0,83,0.00,,,0.00,Wunderground v.1.15,2013-07-21 05:22:00,
2013-07-21 01:27:00,70.7,65.3,29.83,NW,312,0.0,1.0,83,0.00,,,0.00,Wunderground v.1.15,2013-07-21 05:27:00,
2013-07-21 01:28:00,70.7,65.3,29.83,NW,312,0.0,1.0,83,0.00,,,0.00,Wunderground v.1.15,2013-07-21 05:28:00,
2013-07-21 01:30:00,70.6,65.2,29.83,NW,312,0.0,1.0,83,0.00,,,0.00,Wunderground v.1.15,2013-07-21 05:30:00,
2013-07-21 01:31:00,70.6,65.2,29.83,NW,312,1.0,2.0,83,0.00,,,0.00,Wunderground v.1.15,2013-07-21 05:31:00,
2013-07-21 01:34:00,70.4,65.0,29.83,NW,312,2.0,2.0,83,0.00,,,0.00,Wunderground v.1.15,2013-07-21 05:34:00,
2013-07-21 01:36:00,70.3,64.9,29.83,NW,315,1.0,2.0,83,0.00,,,0.00,Wunderground v.1.15,2013-07-21 05:36:00,
2013-07-21 01:37:00,70.3,64.9,29.83,NW,315,0.0,2.0,83,0.00,,,0.00,Wunderground v.1.15,2013-07-21 05:37:00,
2013-07-21 01:38:00,70.2,64.8,29.83,NW,315,1.0,2.0,83,0.00,,,0.00,Wunderground v.1.15,2013-07-21 05:38:00,
2013-07-21 01:40:00,70.2,64.8,29.83,NW,315,2.0,2.0,83,0.00,,,0.00,Wunderground v.1.15,2013-07-21 05:40:00,
2013-07-21 01:44:00,70.0,64.9,29.83,NW,317,0.0,1.0,84,0.00,,,0.00,Wunderground v.1.15,2013-07-21 05:44:00,
2013-07-21 01:46:00,69.9,64.8,29.83,NW,317,1.0,1.0,84,0.00,,,0.00,Wunderground v.1.15,2013-07-21 05:46:00,
2013-07-21 01:47:00,69.9,64.5,29.83,NW,317,1.0,1.0,83,0.00,,,0.00,Wunderground v.1.15,2013-07-21 05:47:00,
2013-07-21 01:49:00,69.8,64.7,29.83,NW,317,1.0,1.0,84,0.00,,,0.00,Wunderground v.1.15,2013-07-21 05:49:00,
2013-07-21 01:50:00,69.8,64.7,29.83,NW,317,0.0,1.0,84,0.00,,,0.00,Wunderground v.1.15,2013-07-21 05:50:00,
2013-07-21 01:53:00,69.7,64.3,29.83,NNW,336,2.0,2.0,83,0.00,,,0.00,Wunderground v.1.15,2013-07-21 05:53:00,
2013-07-21 01:55:00,69.6,64.2,29.83,NNW,333,2.0,2.0,83,0.00,,,0.00,Wunderground v.1.15,2013-07-21 05:55:00,
2013-07-21 01:56:00,69.5,64.1,29.83,NNW,333,2.0,2.0,83,0.00,,,0.00,Wunderground v.1.15,2013-07-21 05:56:00,
2013-07-21 01:58:00,69.4,64.0,29.83,WNW,298,1.0,2.0,83,0.00,,,0.00,Wunderground v.1.15,2013-07-21 05:58:00,
2013-07-21 01:59:00,69.4,64.0,29.84,North,355,4.0,4.0,83,0.00,,,0.00,Wunderground v.1.15,2013-07-21 05:59:00,
2013-07-21 02:02:00,69.3,63.9,29.84,NNW,329,3.0,4.0,83,0.00,,,0.00,Wunderground v.1.15,2013-07-21 06:02:00,
2013-07-21 02:04:00,69.2,63.8,29.84,WNW,303,0.0,2.0,83,0.00,,,0.00,Wunderground v.1.15,2013-07-21 06:04:00,
2013-07-21 02:05:00,69.2,63.8,29.84,NW,313,4.0,4.0,83,0.00,,,0.00,Wunderground v.1.15,2013-07-21 06:05:00,
2013-07-21 02:06:00,69.2,63.8,29.83,NW,313,2.0,4.0,83,0.00,,,0.00,Wunderground v.1.15,2013-07-21 06:06:00,
2013-07-21 02:11:00,69.1,63.4,29.84,NNW,333,2.0,4.0,82,0.00,,,0.00,Wunderground v.1.15,2013-07-21 06:11:00,
2013-07-21 02:13:00,69.1,63.4,29.84,WNW,292,1.0,5.0,82,0.00,,,0.00,Wunderground v.1.15,2013-07-21 06:13:00,
2013-07-21 02:14:00,69.1,63.4,29.84,WNW,301,3.0,3.0,82,0.00,,,0.00,Wunderground v.1.15,2013-07-21 06:14:00,
2013-07-21 02:15:00,69.1,63.4,29.84,WNW,301,2.0,3.0,82,0.00,,,0.00,Wunderground v.1.15,2013-07-21 06:15:00,
2013-07-21 02:17:00,69.1,63.0,29.84,NW,304,3.0,3.0,81,0.00,,,0.00,Wunderground v.1.15,2013-07-21 06:17:00,
2013-07-21 02:20:00,69.2,63.1,29.84,WNW,303,2.0,3.0,81,0.00,,,0.00,Wunderground v.1.15,2013-07-21 06:20:00,
2013-07-21 02:21:00,69.2,63.1,29.84,WNW,303,1.0,3.0,81,0.00,,,0.00,Wunderground v.1.15,2013-07-21 06:21:00,
2013-07-21 02:22:00,69.2,63.1,29.84,WNW,303,4.0,4.0,81,0.00,,,0.00,Wunderground v.1.15,2013-07-21 06:22:00,
2013-07-21 02:25:00,69.2,63.1,29.84,NNW,331,2.0,2.0,81,0.00,,,0.00,Wunderground v.1.15,2013-07-21 06:25:00,
2013-07-21 02:26:00,69.3,63.2,29.84,NW,324,1.0,2.0,81,0.00,,,0.00,Wunderground v.1.15,2013-07-21 06:26:00,
2013-07-21 02:27:00,69.3,62.9,29.84,NNW,340,0.0,4.0,80,0.00,,,0.00,Wunderground v.1.15,2013-07-21 06:27:00,
2013-07-21 02:30:00,69.3,62.9,29.84,NNW,340,2.0,4.0,80,0.00,,,0.00,Wunderground v.1.15,2013-07-21 06:30:00,
2013-07-21 02:31:00,69.3,62.9,29.84,NNW,340,1.0,4.0,80,0.00,,,0.00,Wunderground v.1.15,2013-07-21 06:31:00,
2013-07-21 02:32:00,69.3,62.9,29.84,NNW,340,2.0,4.0,80,0.00,,,0.00,Wunderground v.1.15,2013-07-21 06:32:00,
2013-07-21 02:35:00,69.4,63.0,29.84,NNW,348,1.0,2.0,80,0.00,,,0.00,Wunderground v.1.15,2013-07-21 06:35:00,
2013-07-21 02:36:00,69.4,63.0,29.84,NNW,348,0.0,2.0,80,0.00,,,0.00,Wunderground v.1.15,2013-07-21 06:36:00,
2013-07-21 02:38:00,69.4,63.0,29.84,NNW,348,1.0,2.0,80,0.00,,,0.00,Wunderground v.1.15,2013-07-21 06:38:00,
2013-07-21 02:40:00,69.5,63.1,29.84,NW,309,1.0,4.0,80,0.00,,,0.00,Wunderground v.1.15,2013-07-21 06:40:00,
2013-07-21 02:41:00,69.5,63.1,29.84,NW,309,1.0,4.0,80,0.00,,,0.00,Wunderground v.1.15,2013-07-21 06:41:00,
2013-07-21 02:43:00,69.5,63.1,29.84,NW,309,1.0,4.0,80,0.00,,,0.00,Wunderground v.1.15,2013-07-21 06:43:00,
2013-07-21 02:45:00,69.5,63.1,29.84,NW,309,0.0,1.0,80,0.00,,,0.00,Wunderground v.1.15,2013-07-21 06:45:00,
2013-07-21 02:46:00,69.5,63.1,29.84,NW,309,1.0,1.0,80,0.00,,,0.00,Wunderground v.1.15,2013-07-21 06:46:00,
2013-07-21 02:48:00,69.6,63.2,29.84,NW,309,0.0,1.0,80,0.00,,,0.00,Wunderground v.1.15,2013-07-21 06:48:00,
2013-07-21 02:51:00,69.6,62.8,29.84,NW,312,0.0,2.0,79,0.00,,,0.00,Wunderground v.1.15,2013-07-21 06:51:00,
2013-07-21 02:53:00,69.7,62.9,29.85,NW,311,1.0,2.0,79,0.00,,,0.00,Wunderground v.1.15,2013-07-21 06:53:00,
2013-07-21 02:56:00,69.7,62.9,29.85,WNW,302,0.0,2.0,79,0.00,,,0.00,Wunderground v.1.15,2013-07-21 06:56:00,
2013-07-21 02:58:00,69.7,62.9,29.85,WNW,302,1.0,2.0,79,0.00,,,0.00,Wunderground v.1.15,2013-07-21 06:58:00,
2013-07-21 03:01:00,69.8,63.0,29.85,WNW,302,0.0,2.0,79,0.00,,,0.00,Wunderground v.1.15,2013-07-21 07:01:00,
2013-07-21 03:03:00,69.8,63.0,29.85,WNW,302,1.0,2.0,79,0.00,,,0.00,Wunderground v.1.15,2013-07-21 07:03:00,
2013-07-21 03:04:00,69.8,63.0,29.85,WNW,302,0.0,2.0,79,0.00,,,0.00,Wunderground v.1.15,2013-07-21 07:04:00,
2013-07-21 03:06:00,69.9,63.8,29.85,WNW,302,1.0,4.0,81,0.00,,,0.00,Wunderground v.1.15,2013-07-21 07:06:00,
2013-07-21 03:07:00,69.9,63.4,29.85,WNW,302,1.0,4.0,80,0.00,,,0.00,Wunderground v.1.15,2013-07-21 07:07:00,
2013-07-21 03:08:00,70.0,63.5,29.85,WNW,302,0.0,4.0,80,0.00,,,0.00,Wunderground v.1.15,2013-07-21 07:08:00,
2013-07-21 03:09:00,70.3,64.9,29.85,WNW,302,3.0,4.0,83,0.00,,,0.00,Wunderground v.1.15,2013-07-21 07:09:00,
2013-07-21 03:11:00,70.8,65.7,29.85,NW,309,1.0,5.0,84,0.00,,,0.00,Wunderground v.1.15,2013-07-21 07:11:00,
2013-07-21 03:12:00,70.9,65.8,29.85,NW,309,2.0,5.0,84,0.00,,,0.00,Wunderground v.1.15,2013-07-21 07:12:00,
2013-07-21 03:13:00,71.0,65.9,29.85,NW,309,1.0,5.0,84,0.00,,,0.00,Wunderground v.1.15,2013-07-21 07:13:00,
2013-07-21 03:14:00,71.1,65.0,29.85,NW,309,2.0,5.0,81,0.00,,,0.00,Wunderground v.1.15,2013-07-21 07:14:00,
2013-07-21 03:16:00,71.1,63.9,29.84,NW,309,1.0,2.0,78,0.00,,,0.00,Wunderground v.1.15,2013-07-21 07:16:00,
2013-07-21 03:17:00,71.0,63.8,29.85,NW,309,2.0,2.0,78,0.00,,,0.00,Wunderground v.1.15,2013-07-21 07:17:00,
2013-07-21 03:18:00,71.0,63.8,29.85,NW,309,0.0,2.0,78,0.00,,,0.00,Wunderground v.1.15,2013-07-21 07:18:00,
2013-07-21 03:19:00,70.9,63.3,29.84,NW,309,1.0,3.0,77,0.00,,,0.00,Wunderground v.1.15,2013-07-21 07:19:00,
2013-07-21 03:22:00,70.7,63.1,29.85,NW,309,0.0,3.0,77,0.00,,,0.00,Wunderground v.1.15,2013-07-21 07:22:00,
2013-07-21 03:23:00,70.6,63.0,29.85,NW,309,2.0,3.0,77,0.00,,,0.00,Wunderground v.1.15,2013-07-21 07:23:00,
2013-07-21 03:25:00,70.5,62.9,29.85,NW,309,1.0,2.0,77,0.00,,,0.00,Wunderground v.1.15,2013-07-21 07:25:00,
2013-07-21 03:27:00,70.4,63.2,29.84,NW,309,0.0,3.0,78,0.00,,,0.00,Wunderground v.1.15,2013-07-21 07:27:00,
2013-07-21 03:28:00,70.4,63.2,29.84,NW,309,0.0,3.0,78,0.00,,,0.00,Wunderground v.1.15,2013-07-21 07:28:00,
2013-07-21 03:30:00,70.3,63.1,29.85,NW,314,2.0,3.0,78,0.00,,,0.00,Wunderground v.1.15,2013-07-21 07:30:00,
2013-07-21 03:32:00,70.2,63.0,29.84,NW,314,0.0,3.0,78,0.00,,,0.00,Wunderground v.1.15,2013-07-21 07:32:00,
2013-07-21 03:33:00,70.2,63.0,29.84,NW,314,1.0,3.0,78,0.00,,,0.00,Wunderground v.1.15,2013-07-21 07:33:00,
2013-07-21 03:35:00,70.2,63.0,29.84,NW,314,0.0,2.0,78,0.00,,,0.00,Wunderground v.1.15,2013-07-21 07:35:00,
2013-07-21 03:38:00,70.1,62.9,29.84,NW,314,1.0,2.0,78,0.00,,,0.00,Wunderground v.1.15,2013-07-21 07:38:00,
2013-07-21 03:39:00,70.1,62.9,29.84,NW,314,0.0,2.0,78,0.00,,,0.00,Wunderground v.1.15,2013-07-21 07:39:00,
2013-07-21 03:40:00,70.1,62.9,29.84,NW,314,2.0,2.0,78,0.00,,,0.00,Wunderground v.1.15,2013-07-21 07:40:00,
2013-07-21 03:43:00,70.1,62.9,29.84,NW,314,3.0,3.0,78,0.00,,,0.00,Wunderground v.1.15,2013-07-21 07:43:00,
2013-07-21 03:44:00,70.1,62.9,29.84,NW,314,1.0,3.0,78,0.00,,,0.00,Wunderground v.1.15,2013-07-21 07:44:00,
2013-07-21 03:45:00,70.1,62.9,29.84,NW,314,2.0,3.0,78,0.00,,,0.00,Wunderground v.1.15,2013-07-21 07:45:00,
2013-07-21 03:48:00,70.1,62.9,29.84,NW,314,2.0,3.0,78,0.00,,,0.00,Wunderground v.1.15,2013-07-21 07:48:00,
2013-07-21 03:49:00,70.1,62.9,29.84,NW,314,1.0,3.0,78,0.00,,,0.00,Wunderground v.1.15,2013-07-21 07:49:00,
2013-07-21 03:50:00,70.0,62.8,29.84,NW,317,3.0,4.0,78,0.00,,,0.00,Wunderground v.1.15,2013-07-21 07:50:00,
2013-07-21 03:53:00,70.0,62.8,29.84,NW,319,2.0,4.0,78,0.00,,,0.00,Wunderground v.1.15,2013-07-21 07:53:00,
2013-07-21 03:54:00,70.0,62.8,29.84,NW,319,2.0,4.0,78,0.00,,,0.00,Wunderground v.1.15,2013-07-21 07:54:00,
2013-07-21 03:56:00,70.1,62.9,29.84,NW,311,2.0,3.0,78,0.00,,,0.00,Wunderground v.1.15,2013-07-21 07:56:00,
2013-07-21 03:58:00,70.0,62.5,29.84,NW,314,1.0,5.0,77,0.00,,,0.00,Wunderground v.1.15,2013-07-21 07:58:00,
2013-07-21 03:59:00,70.1,62.9,29.84,NW,314,1.0,5.0,78,0.00,,,0.00,Wunderground v.1.15,2013-07-21 07:59:00,
2013-07-21 04:01:00,70.1,62.9,29.84,NW,314,1.0,5.0,78,0.00,,,0.00,Wunderground v.1.15,2013-07-21 08:01:00,
2013-07-21 04:03:00,70.1,62.9,29.84,NW,314,2.0,5.0,78,0.00,,,0.00,Wunderground v.1.15,2013-07-21 08:03:00,
2013-07-21 04:05:00,70.1,62.9,29.84,NW,314,0.0,2.0,78,0.00,,,0.00,Wunderground v.1.15,2013-07-21 08:05:00,
2013-07-21 04:06:00,70.1,62.9,29.84,NW,314,1.0,2.0,78,0.00,,,0.00,Wunderground v.1.15,2013-07-21 08:06:00,
2013-07-21 04:09:00,70.1,62.9,29.84,NW,314,1.0,2.0,78,0.00,,,0.00,Wunderground v.1.15,2013-07-21 08:09:00,
2013-07-21 04:10:00,70.1,62.9,29.85,NW,314,1.0,2.0,78,0.00,,,0.00,Wunderground v.1.15,2013-07-21 08:10:00,
2013-07-21 04:11:00,70.1,62.6,29.84,NW,314,0.0,2.0,77,0.00,,,0.00,Wunderground v.1.15,2013-07-21 08:11:00,
2013-07-21 04:14:00,70.1,62.6,29.85,NW,314,1.0,3.0,77,0.00,,,0.00,Wunderground v.1.15,2013-07-21 08:14:00,
2013-07-21 04:15:00,70.0,62.8,29.85,NW,314,0.0,1.0,78,0.00,,,0.00,Wunderground v.1.15,2013-07-21 08:15:00,
2013-07-21 04:16:00,70.1,62.9,29.85,NW,314,0.0,1.0,78,0.00,,,0.00,Wunderground v.1.15,2013-07-21 08:16:00,
2013-07-21 04:17:00,70.1,62.9,29.85,NW,314,0.0,1.0,78,0.00,,,0.00,Wunderground v.1.15,2013-07-21 08:17:00,
2013-07-21 04:19:00,70.0,62.8,29.85,NW,314,0.0,1.0,78,0.00,,,0.00,Wunderground v.1.15,2013-07-21 08:19:00,
2013-07-21 04:20:00,70.0,62.8,29.85,NW,314,0.0,1.0,78,0.00,,,0.00,Wunderground v.1.15,2013-07-21 08:20:00,
2013-07-21 04:21:00,70.0,62.8,29.85,NW,314,0.0,1.0,78,0.00,,,0.00,Wunderground v.1.15,2013-07-21 08:21:00,
2013-07-21 04:22:00,70.0,62.8,29.85,NW,314,0.0,1.0,78,0.00,,,0.00,Wunderground v.1.15,2013-07-21 08:22:00,
2013-07-21 04:24:00,70.0,62.8,29.85,NW,314,0.0,1.0,78,0.00,,,0.00,Wunderground v.1.15,2013-07-21 08:24:00,
2013-07-21 04:26:00,69.9,62.7,29.85,NW,314,0.0,1.0,78,0.00,,,0.00,Wunderground v.1.15,2013-07-21 08:26:00,
2013-07-21 04:27:00,69.9,62.7,29.85,NW,314,0.0,1.0,78,0.00,,,0.00,Wunderground v.1.15,2013-07-21 08:27:00,
2013-07-21 04:30:00,69.9,62.7,29.85,NW,314,0.0,1.0,78,0.00,,,0.00,Wunderground v.1.15,2013-07-21 08:30:00,
2013-07-21 04:31:00,69.9,62.7,29.85,NW,314,0.0,1.0,78,0.00,,,0.00,Wunderground v.1.15,2013-07-21 08:31:00,
2013-07-21 04:33:00,69.8,62.6,29.85,NW,314,0.0,1.0,78,0.00,,,0.00,Wunderground v.1.15,2013-07-21 08:33:00,
2013-07-21 04:35:00,69.8,62.6,29.85,NW,314,0.0,0.0,78,0.00,,,0.00,Wunderground v.1.15,2013-07-21 08:35:00,
2013-07-21 04:36:00,69.8,62.6,29.85,NW,314,0.0,0.0,78,0.00,,,0.00,Wunderground v.1.15,2013-07-21 08:36:00,
2013-07-21 04:38:00,69.8,62.6,29.85,NW,314,0.0,1.0,78,0.00,,,0.00,Wunderground v.1.15,2013-07-21 08:38:00,
2013-07-21 04:40:00,69.8,62.6,29.86,NW,314,0.0,1.0,78,0.00,,,0.00,Wunderground v.1.15,2013-07-21 08:40:00,
2013-07-21 04:41:00,69.8,62.6,29.86,NW,314,0.0,1.0,78,0.00,,,0.00,Wunderground v.1.15,2013-07-21 08:41:00,
2013-07-21 04:42:00,69.8,62.6,29.86,NW,314,0.0,1.0,78,0.00,,,0.00,Wunderground v.1.15,2013-07-21 08:42:00,
2013-07-21 04:43:00,69.7,62.9,29.86,NW,314,0.0,1.0,79,0.00,,,0.00,Wunderground v.1.15,2013-07-21 08:43:00,
2013-07-21 04:45:00,69.7,62.5,29.86,NW,314,0.0,0.0,78,0.00,,,0.00,Wunderground v.1.15,2013-07-21 08:45:00,
2013-07-21 04:47:00,69.7,62.9,29.86,NW,314,0.0,1.0,79,0.00,,,0.00,Wunderground v.1.15,2013-07-21 08:47:00,
2013-07-21 04:48:00,69.6,62.8,29.86,NW,314,1.0,1.0,79,0.00,,,0.00,Wunderground v.1.15,2013-07-21 08:48:00,
2013-07-21 04:50:00,69.5,62.7,29.86,NW,314,0.0,1.0,79,0.00,,,0.00,Wunderground v.1.15,2013-07-21 08:50:00,
2013-07-21 04:52:00,69.4,62.6,29.87,NW,314,0.0,1.0,79,0.00,,,0.00,Wunderground v.1.15,2013-07-21 08:52:00,
2013-07-21 04:53:00,69.4,62.6,29.87,NW,314,0.0,1.0,79,0.00,,,0.00,Wunderground v.1.15,2013-07-21 08:53:00,
2013-07-21 04:55:00,69.4,63.0,29.87,NW,314,0.0,2.0,80,0.00,,,0.00,Wunderground v.1.15,2013-07-21 08:55:00,
2013-07-21 04:57:00,69.3,62.9,29.87,NW,314,0.0,2.0,80,0.00,,,0.00,Wunderground v.1.15,2013-07-21 08:57:00,
2013-07-21 04:58:00,69.3,62.9,29.87,NW,314,0.0,2.0,80,0.00,,,0.00,Wunderground v.1.15,2013-07-21 08:58:00,
2013-07-21 05:00:00,69.2,62.8,29.87,NW,314,0.0,2.0,80,0.00,,,0.00,Wunderground v.1.15,2013-07-21 09:00:00,
2013-07-21 05:01:00,69.2,62.8,29.87,NW,314,1.0,2.0,80,0.00,,,0.00,Wunderground v.1.15,2013-07-21 09:01:00,
2013-07-21 05:02:00,69.2,62.8,29.87,NW,314,0.0,2.0,80,0.00,,,0.00,Wunderground v.1.15,2013-07-21 09:02:00,
2013-07-21 05:03:00,69.1,62.7,29.87,NW,314,0.0,2.0,80,0.00,,,0.00,Wunderground v.1.15,2013-07-21 09:03:00,
2013-07-21 05:05:00,69.1,62.7,29.87,NW,314,0.0,2.0,80,0.00,,,0.00,Wunderground v.1.15,2013-07-21 09:05:00,
2013-07-21 05:06:00,69.0,62.6,29.87,NW,314,1.0,2.0,80,0.00,,,0.00,Wunderground v.1.15,2013-07-21 09:06:00,
2013-07-21 05:07:00,69.0,62.9,29.87,NW,314,0.0,2.0,81,0.00,,,0.00,Wunderground v.1.15,2013-07-21 09:07:00,
2013-07-21 05:08:00,69.0,62.9,29.87,NW,314,1.0,2.0,81,0.00,,,0.00,Wunderground v.1.15,2013-07-21 09:08:00,
2013-07-21 05:09:00,69.0,62.9,29.87,NW,314,0.0,2.0,81,0.00,,,0.00,Wunderground v.1.15,2013-07-21 09:09:00,
2013-07-21 05:10:00,68.9,62.8,29.87,NW,314,0.0,2.0,81,0.00,,,0.00,Wunderground v.1.15,2013-07-21 09:10:00,
2013-07-21 05:11:00,68.9,62.8,29.87,NW,314,0.0,2.0,81,0.00,,,0.00,Wunderground v.1.15,2013-07-21 09:11:00,
2013-07-21 05:12:00,68.9,62.8,29.87,NW,314,0.0,2.0,81,0.00,,,0.00,Wunderground v.1.15,2013-07-21 09:12:00,
2013-07-21 05:13:00,68.8,62.7,29.87,NW,314,0.0,2.0,81,0.00,,,0.00,Wunderground v.1.15,2013-07-21 09:13:00,
2013-07-21 05:14:00,68.8,62.7,29.87,NW,314,0.0,0.0,81,0.00,,,0.00,Wunderground v.1.15,2013-07-21 09:14:00,
2013-07-21 05:15:00,68.8,62.7,29.87,NW,314,1.0,1.0,81,0.00,,,0.00,Wunderground v.1.15,2013-07-21 09:15:00,
2013-07-21 05:17:00,68.7,62.6,29.87,NW,314,0.0,1.0,81,0.00,,,0.00,Wunderground v.1.15,2013-07-21 09:17:00,
2013-07-21 05:18:00,68.7,62.6,29.87,NW,314,1.0,2.0,81,0.00,,,0.00,Wunderground v.1.15,2013-07-21 09:18:00,
2013-07-21 05:19:00,68.7,62.6,29.87,NW,314,0.0,2.0,81,0.00,,,0.00,Wunderground v.1.15,2013-07-21 09:19:00,
2013-07-21 05:20:00,68.7,62.6,29.87,NW,314,1.0,2.0,81,0.00,,,0.00,Wunderground v.1.15,2013-07-21 09:20:00,
2013-07-21 05:22:00,68.7,62.6,29.87,NW,314,0.0,2.0,81,0.00,,,0.00,Wunderground v.1.15,2013-07-21 09:22:00,
2013-07-21 05:23:00,68.6,62.5,29.87,NW,314,0.0,2.0,81,0.00,,,0.00,Wunderground v.1.15,2013-07-21 09:23:00,
2013-07-21 05:25:00,68.6,62.5,29.87,NW,314,0.0,0.0,81,0.00,,,0.00,Wunderground v.1.15,2013-07-21 09:25:00,
2013-07-21 05:26:00,68.6,62.5,29.87,NW,314,0.0,0.0,81,0.00,,,0.00,Wunderground v.1.15,2013-07-21 09:26:00,
2013-07-21 05:27:00,68.6,62.9,29.88,NW,314,1.0,2.0,82,0.00,,,0.00,Wunderground v.1.15,2013-07-21 09:27:00,
2013-07-21 05:28:00,68.6,62.9,29.88,NW,314,0.0,2.0,82,0.00,,,0.00,Wunderground v.1.15,2013-07-21 09:28:00,
2013-07-21 05:29:00,68.6,62.9,29.88,NW,314,0.0,2.0,82,0.00,,,0.00,Wunderground v.1.15,2013-07-21 09:29:00,
2013-07-21 05:30:00,68.6,62.9,29.88,NW,314,0.0,2.0,82,0.00,,,0.00,Wunderground v.1.15,2013-07-21 09:30:00,
2013-07-21 05:33:00,68.5,62.8,29.88,NW,314,1.0,2.0,82,0.00,,,0.00,Wunderground v.1.15,2013-07-21 09:33:00,
2013-07-21 05:34:00,68.5,62.8,29.89,NW,314,0.0,2.0,82,0.00,,,0.00,Wunderground v.1.15,2013-07-21 09:34:00,
2013-07-21 05:35:00,68.5,62.8,29.89,NW,314,0.0,0.0,82,0.00,,,0.00,Wunderground v.1.15,2013-07-21 09:35:00,
2013-07-21 05:36:00,68.5,62.8,29.89,NW,314,0.0,0.0,82,0.00,,,0.00,Wunderground v.1.15,2013-07-21 09:36:00,
2013-07-21 05:38:00,68.5,62.8,29.89,NW,314,0.0,1.0,82,0.00,,,0.00,Wunderground v.1.15,2013-07-21 09:38:00,
2013-07-21 05:39:00,68.5,62.8,29.89,NW,314,0.0,1.0,82,0.00,,,0.00,Wunderground v.1.15,2013-07-21 09:39:00,
2013-07-21 05:41:00,68.5,62.8,29.89,NW,314,0.0,1.0,82,0.00,,,0.00,Wunderground v.1.15,2013-07-21 09:41:00,
2013-07-21 05:43:00,68.5,62.8,29.89,NW,314,0.0,1.0,82,0.00,,,0.00,Wunderground v.1.15,2013-07-21 09:43:00,
2013-07-21 05:44:00,68.5,62.8,29.89,NW,314,0.0,0.0,82,0.00,,,0.00,Wunderground v.1.15,2013-07-21 09:44:00,
2013-07-21 05:46:00,68.4,62.7,29.89,NW,314,0.0,1.0,82,0.00,,,0.00,Wunderground v.1.15,2013-07-21 09:46:00,
2013-07-21 05:49:00,68.4,62.7,29.89,NW,314,0.0,2.0,82,0.00,,,0.00,Wunderground v.1.15,2013-07-21 09:49:00,
2013-07-21 05:50:00,68.4,63.0,29.89,NW,314,0.0,2.0,83,0.00,,,0.00,Wunderground v.1.15,2013-07-21 09:50:00,
2013-07-21 05:51:00,68.3,62.9,29.89,NW,314,0.0,2.0,83,0.00,,,0.00,Wunderground v.1.15,2013-07-21 09:51:00,
2013-07-21 05:54:00,68.3,62.9,29.89,NW,314,0.0,2.0,83,0.00,,,0.00,Wunderground v.1.15,2013-07-21 09:54:00,
2013-07-21 05:55:00,68.3,62.9,29.88,NW,314,0.0,1.0,83,0.00,,,0.00,Wunderground v.1.15,2013-07-21 09:55:00,
2013-07-21 05:56:00,68.3,62.9,29.88,NW,314,0.0,2.0,83,0.00,,,0.00,Wunderground v.1.15,2013-07-21 09:56:00,
2013-07-21 05:57:00,68.3,62.9,29.88,NW,314,0.0,2.0,83,0.00,,,0.00,Wunderground v.1.15,2013-07-21 09:57:00,
2013-07-21 05:59:00,68.3,62.9,29.88,NW,314,0.0,2.0,83,0.00,,,0.00,Wunderground v.1.15,2013-07-21 09:59:00,
2013-07-21 06:00:00,68.3,62.9,29.88,NW,314,1.0,2.0,83,0.00,,,0.00,Wunderground v.1.15,2013-07-21 10:00:00,
2013-07-21 06:02:00,68.3,62.9,29.88,NW,314,0.0,2.0,83,0.00,,,0.00,Wunderground v.1.15,2013-07-21 10:02:00,
2013-07-21 06:04:00,68.3,62.9,29.89,NW,314,1.0,1.0,83,0.00,,,0.00,Wunderground v.1.15,2013-07-21 10:04:00,
2013-07-21 06:05:00,68.3,62.9,29.89,NW,314,2.0,2.0,83,0.00,,,0.00,Wunderground v.1.15,2013-07-21 10:05:00,
2013-07-21 06:07:00,68.3,62.9,29.89,NW,314,2.0,2.0,83,0.00,,,0.00,Wunderground v.1.15,2013-07-21 10:07:00,
2013-07-21 06:08:00,68.3,62.9,29.89,NW,314,0.0,2.0,83,0.00,,,0.00,Wunderground v.1.15,2013-07-21 10:08:00,
2013-07-21 06:09:00,68.3,62.9,29.89,NW,314,0.0,2.0,83,0.00,,,0.00,Wunderground v.1.15,2013-07-21 10:09:00,
2013-07-21 06:11:00,68.3,62.9,29.89,NW,314,0.0,2.0,83,0.00,,,0.00,Wunderground v.1.15,2013-07-21 10:11:00,
2013-07-21 06:12:00,68.3,62.9,29.89,NW,314,2.0,3.0,83,0.00,,,0.00,Wunderground v.1.15,2013-07-21 10:12:00,
2013-07-21 06:13:00,68.3,62.9,29.89,NW,314,2.0,3.0,83,0.00,,,0.00,Wunderground v.1.15,2013-07-21 10:13:00,
2013-07-21 06:14:00,68.3,62.9,29.89,NW,314,0.0,1.0,83,0.00,,,0.00,Wunderground v.1.15,2013-07-21 10:14:00,
2013-07-21 06:16:00,68.3,62.9,29.89,NW,314,0.0,1.0,83,0.00,,,0.00,Wunderground v.1.15,2013-07-21 10:16:00,
2013-07-21 06:17:00,68.3,62.9,29.89,NW,314,0.0,2.0,83,0.00,,,0.00,Wunderground v.1.15,2013-07-21 10:17:00,
2013-07-21 06:18:00,68.3,62.9,29.89,NW,314,0.0,2.0,83,0.00,,,0.00,Wunderground v.1.15,2013-07-21 10:18:00,
2013-07-21 06:19:00,68.3,62.9,29.89,NW,314,0.0,2.0,83,0.00,,,0.00,Wunderground v.1.15,2013-07-21 10:19:00,
2013-07-21 06:21:00,68.3,63.3,29.89,NW,314,0.0,2.0,84,0.00,,,0.00,Wunderground v.1.15,2013-07-21 10:21:00,
2013-07-21 06:23:00,68.3,63.3,29.89,NW,314,0.0,2.0,84,0.00,,,0.00,Wunderground v.1.15,2013-07-21 10:23:00,
2013-07-21 06:25:00,68.3,63.3,29.89,NW,314,0.0,0.0,84,0.00,,,0.00,Wunderground v.1.15,2013-07-21 10:25:00,
2013-07-21 06:26:00,68.3,63.3,29.89,NW,314,0.0,0.0,84,0.00,,,0.00,Wunderground v.1.15,2013-07-21 10:26:00,
2013-07-21 06:28:00,68.3,63.3,29.89,NW,314,1.0,1.0,84,0.00,,,0.00,Wunderground v.1.15,2013-07-21 10:28:00,
2013-07-21 06:30:00,68.3,63.3,29.90,NW,314,1.0,2.0,84,0.00,,,0.00,Wunderground v.1.15,2013-07-21 10:30:00,
2013-07-21 06:31:00,68.3,63.3,29.90,NW,314,1.0,2.0,84,0.00,,,0.00,Wunderground v.1.15,2013-07-21 10:31:00,
2013-07-21 06:32:00,68.3,63.3,29.90,NW,314,1.0,2.0,84,0.00,,,0.00,Wunderground v.1.15,2013-07-21 10:32:00,
2013-07-21 06:33:00,68.3,63.3,29.90,NW,314,1.0,3.0,84,0.00,,,0.00,Wunderground v.1.15,2013-07-21 10:33:00,
2013-07-21 06:35:00,68.4,63.4,29.90,WNW,298,1.0,3.0,84,0.00,,,0.00,Wunderground v.1.15,2013-07-21 10:35:00,
2013-07-21 06:36:00,68.4,63.4,29.90,WNW,297,0.0,3.0,84,0.00,,,0.00,Wunderground v.1.15,2013-07-21 10:36:00,
2013-07-21 06:37:00,68.4,63.4,29.90,WNW,300,2.0,3.0,84,0.00,,,0.00,Wunderground v.1.15,2013-07-21 10:37:00,
2013-07-21 06:38:00,68.5,63.5,29.90,NW,315,2.0,5.0,84,0.00,,,0.00,Wunderground v.1.15,2013-07-21 10:38:00,
2013-07-21 06:40:00,68.5,63.5,29.90,WNW,297,2.0,5.0,84,0.00,,,0.00,Wunderground v.1.15,2013-07-21 10:40:00,
2013-07-21 06:41:00,68.5,63.5,29.90,WNW,297,2.0,5.0,84,0.00,,,0.00,Wunderground v.1.15,2013-07-21 10:41:00,
2013-07-21 06:42:00,68.5,63.5,29.90,WNW,298,2.0,5.0,84,0.00,,,0.00,Wunderground v.1.15,2013-07-21 10:42:00,
2013-07-21 06:43:00,68.5,63.5,29.90,WNW,298,0.0,5.0,84,0.00,,,0.00,Wunderground v.1.15,2013-07-21 10:43:00,
2013-07-21 06:45:00,68.6,63.6,29.90,NW,304,4.0,5.0,84,0.00,,,0.00,Wunderground v.1.15,2013-07-21 10:45:00,
2013-07-21 06:46:00,68.6,63.6,29.90,NW,304,0.0,5.0,84,0.00,,,0.00,Wunderground v.1.15,2013-07-21 10:46:00,
2013-07-21 06:47:00,68.6,63.6,29.90,NW,304,0.0,5.0,84,0.00,,,0.00,Wunderground v.1.15,2013-07-21 10:47:00,
2013-07-21 06:48:00,68.6,63.6,29.90,NW,304,2.0,5.0,84,0.00,,,0.00,Wunderground v.1.15,2013-07-21 10:48:00,
2013-07-21 06:49:00,68.6,63.6,29.90,NW,304,1.0,5.0,84,0.00,,,0.00,Wunderground v.1.15,2013-07-21 10:49:00,
2013-07-21 06:50:00,68.6,63.6,29.90,NW,304,0.0,5.0,84,0.00,,,0.00,Wunderground v.1.15,2013-07-21 10:50:00,
2013-07-21 06:51:00,68.6,63.6,29.90,NW,304,1.0,5.0,84,0.00,,,0.00,Wunderground v.1.15,2013-07-21 10:51:00,
2013-07-21 06:52:00,68.6,63.6,29.90,NW,304,2.0,5.0,84,0.00,,,0.00,Wunderground v.1.15,2013-07-21 10:52:00,
2013-07-21 06:53:00,68.6,63.6,29.90,NW,304,0.0,5.0,84,0.00,,,0.00,Wunderground v.1.15,2013-07-21 10:53:00,
2013-07-21 06:54:00,68.7,63.7,29.90,NW,304,0.0,5.0,84,0.00,,,0.00,Wunderground v.1.15,2013-07-21 10:54:00,
2013-07-21 06:55:00,68.7,63.7,29.90,NW,304,0.0,1.0,84,0.00,,,0.00,Wunderground v.1.15,2013-07-21 10:55:00,
2013-07-21 06:57:00,68.8,63.8,29.90,NW,304,1.0,1.0,84,0.00,,,0.00,Wunderground v.1.15,2013-07-21 10:57:00,
2013-07-21 06:59:00,68.8,63.8,29.90,NW,304,0.0,1.0,84,0.00,,,0.00,Wunderground v.1.15,2013-07-21 10:59:00,
2013-07-21 07:01:00,68.9,63.5,29.90,West,281,0.0,3.0,83,0.00,,,0.00,Wunderground v.1.15,2013-07-21 11:01:00,
2013-07-21 07:02:00,69.0,63.6,29.90,West,281,0.0,3.0,83,0.00,,,0.00,Wunderground v.1.15,2013-07-21 11:02:00,
2013-07-21 07:04:00,69.1,63.7,29.90,West,281,0.0,1.0,83,0.00,,,0.00,Wunderground v.1.15,2013-07-21 11:04:00,
2013-07-21 07:06:00,69.2,63.8,29.90,West,281,0.0,1.0,83,0.00,,,0.00,Wunderground v.1.15,2013-07-21 11:06:00,
2013-07-21 07:07:00,69.3,63.9,29.90,West,281,0.0,1.0,83,0.00,,,0.00,Wunderground v.1.15,2013-07-21 11:07:00,
2013-07-21 07:08:00,69.4,64.0,29.90,West,281,0.0,1.0,83,0.00,,,0.00,Wunderground v.1.15,2013-07-21 11:08:00,
2013-07-21 07:09:00,69.4,63.7,29.91,West,281,1.0,2.0,82,0.00,,,0.00,Wunderground v.1.15,2013-07-21 11:09:00,
2013-07-21 07:11:00,69.5,63.8,29.91,West,281,0.0,2.0,82,0.00,,,0.00,Wunderground v.1.15,2013-07-21 11:11:00,
2013-07-21 07:12:00,69.6,63.9,29.91,West,281,0.0,2.0,82,0.00,,,0.00,Wunderground v.1.15,2013-07-21 11:12:00,
2013-07-21 07:14:00,69.7,64.0,29.91,West,281,0.0,0.0,82,0.00,,,0.00,Wunderground v.1.15,2013-07-21 11:14:00,
2013-07-21 07:16:00,69.9,64.2,29.91,West,281,1.0,1.0,82,0.00,,,0.00,Wunderground v.1.15,2013-07-21 11:16:00,
2013-07-21 07:17:00,70.0,64.2,29.91,West,281,3.0,3.0,82,0.00,,,0.00,Wunderground v.1.15,2013-07-21 11:17:00,
2013-07-21 07:19:00,70.0,63.9,29.91,West,281,1.0,3.0,81,0.00,,,0.00,Wunderground v.1.15,2013-07-21 11:19:00,
2013-07-21 07:20:00,70.0,63.9,29.91,West,281,1.0,3.0,81,0.00,,,0.00,Wunderground v.1.15,2013-07-21 11:20:00,
2013-07-21 07:21:00,70.1,64.3,29.91,WNW,282,3.0,3.0,82,0.00,,,0.00,Wunderground v.1.15,2013-07-21 11:21:00,
2013-07-21 07:22:00,70.2,64.1,29.91,WNW,282,1.0,3.0,81,0.00,,,0.00,Wunderground v.1.15,2013-07-21 11:22:00,
2013-07-21 07:23:00,70.3,64.2,29.91,WNW,282,2.0,3.0,81,0.00,,,0.00,Wunderground v.1.15,2013-07-21 11:23:00,
2013-07-21 07:25:00,70.4,64.3,29.91,WNW,293,2.0,4.0,81,0.00,,,0.00,Wunderground v.1.15,2013-07-21 11:25:00,
2013-07-21 07:26:00,70.5,64.4,29.91,WNW,300,2.0,4.0,81,0.00,,,0.00,Wunderground v.1.15,2013-07-21 11:26:00,
2013-07-21 07:28:00,70.6,64.5,29.91,WNW,300,2.0,4.0,81,0.00,,,0.00,Wunderground v.1.15,2013-07-21 11:28:00,
2013-07-21 07:30:00,70.7,64.2,29.91,WNW,295,1.0,4.0,80,0.00,,,0.00,Wunderground v.1.15,2013-07-21 11:30:00,
2013-07-21 07:32:00,70.8,64.3,29.91,West,278,4.0,7.0,80,0.00,,,0.00,Wunderground v.1.15,2013-07-21 11:32:00,
2013-07-21 07:33:00,70.8,64.3,29.91,WNW,302,2.0,7.0,80,0.00,,,0.00,Wunderground v.1.15,2013-07-21 11:33:00,
2013-07-21 07:35:00,70.8,64.0,29.91,WNW,303,1.0,3.0,79,0.00,,,0.00,Wunderground v.1.15,2013-07-21 11:35:00,
2013-07-21 07:36:00,70.8,64.3,29.91,WNW,303,2.0,3.0,80,0.00,,,0.00,Wunderground v.1.15,2013-07-21 11:36:00,
2013-07-21 07:37:00,70.8,64.3,29.91,WNW,303,0.0,3.0,80,0.00,,,0.00,Wunderground v.1.15,2013-07-21 11:37:00,
2013-07-21 07:38:00,70.9,64.4,29.91,WNW,303,0.0,3.0,80,0.00,,,0.00,Wunderground v.1.15,2013-07-21 11:38:00,
2013-07-21 07:40:00,71.0,64.5,29.91,West,274,2.0,4.0,80,0.00,,,0.00,Wunderground v.1.15,2013-07-21 11:40:00,
2013-07-21 07:41:00,71.0,64.5,29.91,West,279,3.0,6.0,80,0.00,,,0.00,Wunderground v.1.15,2013-07-21 11:41:00,
2013-07-21 07:42:00,71.1,64.3,29.92,WNW,294,2.0,6.0,79,0.00,,,0.00,Wunderground v.1.15,2013-07-21 11:42:00,
2013-07-21 07:43:00,71.2,64.4,29.92,NNW,333,4.0,6.0,79,0.00,,,0.00,Wunderground v.1.15,2013-07-21 11:43:00,
2013-07-21 07:45:00,71.3,64.1,29.92,WNW,284,3.0,4.0,78,0.00,,,0.00,Wunderground v.1.15,2013-07-21 11:45:00,
2013-07-21 07:46:00,71.3,64.1,29.92,NW,315,1.0,4.0,78,0.00,,,0.00,Wunderground v.1.15,2013-07-21 11:46:00,
2013-07-21 07:47:00,71.3,63.7,29.92,NW,314,0.0,4.0,77,0.00,,,0.00,Wunderground v.1.15,2013-07-21 11:47:00,
2013-07-21 07:48:00,71.4,64.2,29.92,NW,314,0.0,4.0,78,0.00,,,0.00,Wunderground v.1.15,2013-07-21 11:48:00,
2013-07-21 07:51:00,71.5,63.9,29.92,WNW,294,4.0,4.0,77,0.00,,,0.00,Wunderground v.1.15,2013-07-21 11:51:00,
2013-07-21 07:52:00,71.5,63.9,29.92,WNW,293,2.0,4.0,77,0.00,,,0.00,Wunderground v.1.15,2013-07-21 11:52:00,
2013-07-21 07:53:00,71.5,63.9,29.92,WNW,293,0.0,4.0,77,0.00,,,0.00,Wunderground v.1.15,2013-07-21 11:53:00,
2013-07-21 07:54:00,71.5,63.9,29.92,WNW,293,0.0,2.0,77,0.00,,,0.00,Wunderground v.1.15,2013-07-21 11:54:00,
2013-07-21 07:56:00,71.6,64.4,29.92,WNW,293,0.0,2.0,78,0.00,,,0.00,Wunderground v.1.15,2013-07-21 11:56:00,
2013-07-21 07:58:00,71.9,64.7,29.92,WNW,293,0.0,2.0,78,0.00,,,0.00,Wunderground v.1.15,2013-07-21 11:58:00,
2013-07-21 07:59:00,71.9,64.7,29.92,WNW,293,1.0,2.0,78,0.00,,,0.00,Wunderground v.1.15,2013-07-21 11:59:00,
2013-07-21 08:00:00,72.1,64.1,29.92,NW,304,3.0,4.0,76,0.00,,,0.00,Wunderground v.1.15,2013-07-21 12:00:00,
2013-07-21 08:01:00,72.1,64.1,29.92,NW,304,2.0,4.0,76,0.00,,,0.00,Wunderground v.1.15,2013-07-21 12:01:00,
2013-07-21 08:03:00,72.3,64.3,29.92,NW,304,0.0,4.0,76,0.00,,,0.00,Wunderground v.1.15,2013-07-21 12:03:00,
2013-07-21 08:04:00,72.3,64.3,29.92,NW,304,1.0,4.0,76,0.00,,,0.00,Wunderground v.1.15,2013-07-21 12:04:00,
2013-07-21 08:05:00,72.4,64.0,29.92,NW,304,1.0,1.0,75,0.00,,,0.00,Wunderground v.1.15,2013-07-21 12:05:00,
2013-07-21 08:06:00,72.5,64.1,29.92,NW,304,0.0,1.0,75,0.00,,,0.00,Wunderground v.1.15,2013-07-21 12:06:00,
2013-07-21 08:08:00,73.0,64.6,29.93,NW,316,3.0,3.0,75,0.00,,,0.00,Wunderground v.1.15,2013-07-21 12:08:00,
2013-07-21 08:09:00,73.1,64.7,29.93,NW,316,1.0,3.0,75,0.00,,,0.00,Wunderground v.1.15,2013-07-21 12:09:00,
2013-07-21 08:10:00,73.5,64.7,29.93,North,360,1.0,3.0,74,0.00,,,0.00,Wunderground v.1.15,2013-07-21 12:10:00,
2013-07-21 08:11:00,73.6,64.4,29.93,North,360,1.0,3.0,73,0.00,,,0.00,Wunderground v.1.15,2013-07-21 12:11:00,
2013-07-21 08:14:00,74.0,64.4,29.93,NNW,333,1.0,4.0,72,0.00,,,0.00,Wunderground v.1.15,2013-07-21 12:14:00,
2013-07-21 08:15:00,74.2,64.2,29.93,WNW,292,1.0,7.0,71,0.00,,,0.00,Wunderground v.1.15,2013-07-21 12:15:00,
2013-07-21 08:16:00,74.2,64.2,29.93,East,91,8.0,10.0,71,0.00,,,0.00,Wunderground v.1.15,2013-07-21 12:16:00,
2013-07-21 08:19:00,74.1,64.1,29.93,East,98,0.0,10.0,71,0.00,,,0.00,Wunderground v.1.15,2013-07-21 12:19:00,
2013-07-21 08:20:00,74.2,64.6,29.93,East,98,2.0,10.0,72,0.00,,,0.00,Wunderground v.1.15,2013-07-21 12:20:00,
2013-07-21 08:21:00,74.3,64.7,29.94,North,349,2.0,10.0,72,0.00,,,0.00,Wunderground v.1.15,2013-07-21 12:21:00,
2013-07-21 08:22:00,74.3,64.7,29.94,North,349,1.0,10.0,72,0.00,,,0.00,Wunderground v.1.15,2013-07-21 12:22:00,
2013-07-21 08:24:00,74.5,64.5,29.94,NNW,334,1.0,10.0,71,0.00,,,0.00,Wunderground v.1.15,2013-07-21 12:24:00,
2013-07-21 08:26:00,74.6,64.6,29.94,NNE,18,0.0,2.0,71,0.00,,,0.00,Wunderground v.1.15,2013-07-21 12:26:00,
2013-07-21 08:27:00,74.6,64.6,29.94,East,92,3.0,4.0,71,0.00,,,0.00,Wunderground v.1.15,2013-07-21 12:27:00,
2013-07-21 08:29:00,74.5,64.1,29.94,NW,312,2.0,5.0,70,0.00,,,0.00,Wunderground v.1.15,2013-07-21 12:29:00,
2013-07-21 08:30:00,74.4,64.4,29.94,NW,311,1.0,5.0,71,0.00,,,0.00,Wunderground v.1.15,2013-07-21 12:30:00,
2013-07-21 08:31:00,74.4,64.4,29.94,WNW,292,0.0,5.0,71,0.00,,,0.00,Wunderground v.1.15,2013-07-21 12:31:00,
2013-07-21 08:32:00,74.4,64.8,29.94,WNW,292,0.0,5.0,72,0.00,,,0.00,Wunderground v.1.15,2013-07-21 12:32:00,
2013-07-21 08:34:00,74.6,65.0,29.94,WNW,292,2.0,2.0,72,0.00,,,0.00,Wunderground v.1.15,2013-07-21 12:34:00,
2013-07-21 08:35:00,74.6,64.6,29.94,WNW,292,0.0,2.0,71,0.00,,,0.00,Wunderground v.1.15,2013-07-21 12:35:00,
2013-07-21 08:36:00,74.7,65.1,29.94,NNW,329,3.0,3.0,72,0.00,,,0.00,Wunderground v.1.15,2013-07-21 12:36:00,
2013-07-21 08:37:00,74.7,64.7,29.94,WSW,257,2.0,3.0,71,0.00,,,0.00,Wunderground v.1.15,2013-07-21 12:37:00,
2013-07-21 08:39:00,74.9,65.3,29.94,ENE,59,4.0,4.0,72,0.00,,,0.00,Wunderground v.1.15,2013-07-21 12:39:00,
2013-07-21 08:40:00,74.9,64.9,29.94,West,275,0.0,4.0,71,0.00,,,0.00,Wunderground v.1.15,2013-07-21 12:40:00,
2013-07-21 08:41:00,74.9,64.9,29.94,ENE,74,4.0,4.0,71,0.00,,,0.00,Wunderground v.1.15,2013-07-21 12:41:00,
2013-07-21 08:42:00,75.0,65.0,29.94,NE,54,0.0,4.0,71,0.00,,,0.00,Wunderground v.1.15,2013-07-21 12:42:00,
2013-07-21 08:44:00,75.1,65.1,29.94,ENE,59,1.0,1.0,71,0.00,,,0.00,Wunderground v.1.15,2013-07-21 12:44:00,
2013-07-21 08:45:00,75.1,65.1,29.94,ENE,59,0.0,1.0,71,0.00,,,0.00,Wunderground v.1.15,2013-07-21 12:45:00,
2013-07-21 08:46:00,75.2,65.1,29.95,ENE,61,0.0,2.0,71,0.00,,,0.00,Wunderground v.1.15,2013-07-21 12:46:00,
2013-07-21 08:47:00,75.3,65.2,29.95,ENE,61,0.0,2.0,71,0.00,,,0.00,Wunderground v.1.15,2013-07-21 12:47:00,
2013-07-21 08:48:00,75.4,65.3,29.95,ENE,61,0.0,2.0,71,0.00,,,0.00,Wunderground v.1.15,2013-07-21 12:48:00,
2013-07-21 08:49:00,75.6,65.1,29.95,SSE,163,0.0,4.0,70,0.00,,,0.00,Wunderground v.1.15,2013-07-21 12:49:00,
2013-07-21 08:51:00,75.7,65.2,29.95,SE,142,1.0,4.0,70,0.00,,,0.00,Wunderground v.1.15,2013-07-21 12:51:00,
2013-07-21 08:53:00,75.8,65.3,29.95,ENE,72,2.0,4.0,70,0.00,,,0.00,Wunderground v.1.15,2013-07-21 12:53:00,
2013-07-21 08:55:00,75.7,64.8,29.95,East,84,2.0,6.0,69,0.00,,,0.00,Wunderground v.1.15,2013-07-21 12:55:00,
2013-07-21 08:56:00,75.4,64.5,29.95,ENE,77,2.0,8.0,69,0.00,,,0.00,Wunderground v.1.15,2013-07-21 12:56:00,
2013-07-21 08:58:00,74.9,64.5,29.95,ENE,78,4.0,8.0,70,0.00,,,0.00,Wunderground v.1.15,2013-07-21 12:58:00,
2013-07-21 08:59:00,74.8,63.9,29.95,ENE,78,3.0,8.0,69,0.00,,,0.00,Wunderground v.1.15,2013-07-21 12:59:00,
2013-07-21 09:00:00,74.5,64.1,29.95,ENE,77,1.0,8.0,70,0.00,,,0.00,Wunderground v.1.15,2013-07-21 13:00:00,
2013-07-21 09:01:00,74.4,66.0,29.95,ENE,77,1.0,8.0,75,0.00,,,0.00,Wunderground v.1.15,2013-07-21 13:01:00,
2013-07-21 09:03:00,74.3,65.1,29.95,NNW,336,0.0,8.0,73,0.00,,,0.00,Wunderground v.1.15,2013-07-21 13:03:00,
2013-07-21 09:04:00,74.3,67.4,29.95,NNW,336,0.0,8.0,79,0.00,,,0.00,Wunderground v.1.15,2013-07-21 13:04:00,
2013-07-21 09:05:00,74.4,67.8,29.95,NNE,18,2.0,3.0,80,0.00,,,0.00,Wunderground v.1.15,2013-07-21 13:05:00,
2013-07-21 09:06:00,74.4,65.6,29.95,East,81,3.0,5.0,74,0.00,,,0.00,Wunderground v.1.15,2013-07-21 13:06:00,
2013-07-21 09:07:00,74.3,64.7,29.95,East,81,0.0,5.0,72,0.00,,,0.00,Wunderground v.1.15,2013-07-21 13:07:00,
2013-07-21 09:08:00,74.4,65.6,29.95,East,81,0.0,5.0,74,0.00,,,0.00,Wunderground v.1.15,2013-07-21 13:08:00,
2013-07-21 09:09:00,74.5,65.7,29.95,East,81,0.0,5.0,74,0.00,,,0.00,Wunderground v.1.15,2013-07-21 13:09:00,
2013-07-21 09:10:00,74.5,66.1,29.95,East,81,0.0,5.0,75,0.00,,,0.00,Wunderground v.1.15,2013-07-21 13:10:00,
2013-07-21 09:12:00,74.8,66.0,29.95,ENE,71,4.0,5.0,74,0.00,,,0.00,Wunderground v.1.15,2013-07-21 13:12:00,
2013-07-21 09:14:00,75.1,67.0,29.95,ESE,116,3.0,5.0,76,0.00,,,0.00,Wunderground v.1.15,2013-07-21 13:14:00,
2013-07-21 09:15:00,75.0,65.0,29.95,East,93,4.0,4.0,71,0.00,,,0.00,Wunderground v.1.15,2013-07-21 13:15:00,
2013-07-21 09:17:00,74.9,65.3,29.94,East,94,0.0,4.0,72,0.00,,,0.00,Wunderground v.1.15,2013-07-21 13:17:00,
2013-07-21 09:19:00,74.9,64.9,29.94,East,93,1.0,4.0,71,0.00,,,0.00,Wunderground v.1.15,2013-07-21 13:19:00,
2013-07-21 09:20:00,74.9,64.9,29.94,East,93,2.0,4.0,71,0.00,,,0.00,Wunderground v.1.15,2013-07-21 13:20:00,
2013-07-21 09:22:00,75.1,65.1,29.94,East,93,0.0,4.0,71,0.00,,,0.00,Wunderground v.1.15,2013-07-21 13:22:00,
2013-07-21 09:24:00,75.4,65.7,29.94,East,93,1.0,2.0,72,0.00,,,0.00,Wunderground v.1.15,2013-07-21 13:24:00,
2013-07-21 09:25:00,75.6,65.9,29.94,NNW,329,2.0,4.0,72,0.00,,,0.00,Wunderground v.1.15,2013-07-21 13:25:00,
2013-07-21 09:27:00,75.7,65.2,29.94,NNW,346,0.0,4.0,70,0.00,,,0.00,Wunderground v.1.15,2013-07-21 13:27:00,
2013-07-21 09:29:00,75.9,65.0,29.94,ENE,78,2.0,5.0,69,0.00,,,0.00,Wunderground v.1.15,2013-07-21 13:29:00,
2013-07-21 09:30:00,75.9,65.0,29.94,ENE,78,1.0,5.0,69,0.00,,,0.00,Wunderground v.1.15,2013-07-21 13:30:00,
2013-07-21 09:32:00,75.6,65.1,29.94,East,84,3.0,7.0,70,0.00,,,0.00,Wunderground v.1.15,2013-07-21 13:32:00,
2013-07-21 09:34:00,75.2,64.7,29.94,ENE,65,6.0,6.0,70,0.00,,,0.00,Wunderground v.1.15,2013-07-21 13:34:00,
2013-07-21 09:35:00,75.1,64.6,29.94,ENE,59,2.0,6.0,70,0.00,,,0.00,Wunderground v.1.15,2013-07-21 13:35:00,
2013-07-21 09:37:00,75.0,65.0,29.94,East,82,0.0,6.0,71,0.00,,,0.00,Wunderground v.1.15,2013-07-21 13:37:00,
2013-07-21 09:39:00,75.3,65.6,29.93,North,360,3.0,6.0,72,0.00,,,0.00,Wunderground v.1.15,2013-07-21 13:39:00,
2013-07-21 09:40:00,75.5,65.8,29.93,NE,49,2.0,6.0,72,0.00,,,0.00,Wunderground v.1.15,2013-07-21 13:40:00,
2013-07-21 09:42:00,75.9,65.8,29.93,East,84,2.0,6.0,71,0.00,,,0.00,Wunderground v.1.15,2013-07-21 13:42:00,
2013-07-21 09:44:00,76.3,65.8,29.93,East,84,2.0,2.0,70,0.00,,,0.00,Wunderground v.1.15,2013-07-21 13:44:00,
2013-07-21 09:45:00,76.4,65.5,29.93,East,84,1.0,2.0,69,0.00,,,0.00,Wunderground v.1.15,2013-07-21 13:45:00,
2013-07-21 09:47:00,76.7,65.8,29.93,South,177,0.0,4.0,69,0.00,,,0.00,Wunderground v.1.15,2013-07-21 13:47:00,
2013-07-21 09:48:00,76.7,65.8,29.93,South,177,0.0,4.0,69,0.00,,,0.00,Wunderground v.1.15,2013-07-21 13:48:00,
2013-07-21 09:50:00,76.9,65.5,29.93,South,184,1.0,4.0,68,0.00,,,0.00,Wunderground v.1.15,2013-07-21 13:50:00,
2013-07-21 09:51:00,77.0,65.6,29.93,ENE,74,4.0,4.0,68,0.00,,,0.00,Wunderground v.1.15,2013-07-21 13:51:00,
2013-07-21 09:53:00,76.8,65.4,29.94,SSE,155,1.0,5.0,68,0.00,,,0.00,Wunderground v.1.15,2013-07-21 13:53:00,
2013-07-21 09:55:00,76.9,66.0,29.94,ESE,117,0.0,2.0,69,0.00,,,0.00,Wunderground v.1.15,2013-07-21 13:55:00,
2013-07-21 09:56:00,76.9,66.0,29.94,ESE,117,2.0,2.0,69,0.00,,,0.00,Wunderground v.1.15,2013-07-21 13:56:00,
2013-07-21 09:58:00,77.3,66.3,29.94,ESE,117,2.0,2.0,69,0.00,,,0.00,Wunderground v.1.15,2013-07-21 13:58:00,
2013-07-21 10:00:00,77.6,66.2,29.94,East,81,0.0,3.0,68,0.00,,,0.00,Wunderground v.1.15,2013-07-21 14:00:00,
2013-07-21 10:01:00,77.7,66.7,29.94,ENE,72,1.0,3.0,69,0.00,,,0.00,Wunderground v.1.15,2013-07-21 14:01:00,
2013-07-21 10:04:00,77.9,66.1,29.94,ESE,115,2.0,5.0,67,0.00,,,0.00,Wunderground v.1.15,2013-07-21 14:04:00,
2013-07-21 10:05:00,78.2,69.6,29.94,SSE,166,0.0,2.0,75,0.00,,,0.00,Wunderground v.1.15,2013-07-21 14:05:00,
2013-07-21 10:06:00,78.5,69.9,29.94,SSE,166,1.0,2.0,75,0.00,,,0.00,Wunderground v.1.15,2013-07-21 14:06:00,
2013-07-21 10:07:00,78.8,73.2,29.94,ESE,105,3.0,4.0,83,0.00,,,0.00,Wunderground v.1.15,2013-07-21 14:07:00,
2013-07-21 10:09:00,79.3,67.4,29.94,ESE,113,1.0,4.0,67,0.00,,,0.00,Wunderground v.1.15,2013-07-21 14:09:00,
2013-07-21 10:10:00,79.5,65.8,29.94,WNW,301,3.0,4.0,63,0.00,,,0.00,Wunderground v.1.15,2013-07-21 14:10:00,
2013-07-21 10:11:00,79.5,65.8,29.94,NW,309,2.0,4.0,63,0.00,,,0.00,Wunderground v.1.15,2013-07-21 14:11:00,
2013-07-21 10:12:00,79.5,66.3,29.94,NE,50,4.0,7.0,64,0.00,,,0.00,Wunderground v.1.15,2013-07-21 14:12:00,
2013-07-21 10:14:00,79.1,65.9,29.94,ENE,71,3.0,7.0,64,0.00,,,0.00,Wunderground v.1.15,2013-07-21 14:14:00,
2013-07-21 10:15:00,78.7,66.4,29.94,NW,311,4.0,4.0,66,0.00,,,0.00,Wunderground v.1.15,2013-07-21 14:15:00,
2013-07-21 10:16:00,78.6,66.3,29.94,NW,325,1.0,4.0,66,0.00,,,0.00,Wunderground v.1.15,2013-07-21 14:16:00,
2013-07-21 10:17:00,78.5,65.3,29.94,NNW,334,1.0,4.0,64,0.00,,,0.00,Wunderground v.1.15,2013-07-21 14:17:00,
2013-07-21 10:19:00,78.6,66.3,29.94,NNW,343,1.0,4.0,66,0.00,,,0.00,Wunderground v.1.15,2013-07-21 14:19:00,
2013-07-21 10:21:00,78.7,65.5,29.94,NE,53,1.0,4.0,64,0.00,,,0.00,Wunderground v.1.15,2013-07-21 14:21:00,
2013-07-21 10:22:00,78.6,65.4,29.94,NE,53,0.0,4.0,64,0.00,,,0.00,Wunderground v.1.15,2013-07-21 14:22:00,
2013-07-21 10:24:00,78.7,65.5,29.94,ENE,70,0.0,2.0,64,0.00,,,0.00,Wunderground v.1.15,2013-07-21 14:24:00,
2013-07-21 10:25:00,78.7,65.5,29.94,ENE,70,2.0,2.0,64,0.00,,,0.00,Wunderground v.1.15,2013-07-21 14:25:00,
2013-07-21 10:26:00,78.8,65.6,29.94,ENE,70,1.0,2.0,64,0.00,,,0.00,Wunderground v.1.15,2013-07-21 14:26:00,
2013-07-21 10:27:00,78.9,65.7,29.94,ENE,75,1.0,3.0,64,0.00,,,0.00,Wunderground v.1.15,2013-07-21 14:27:00,
2013-07-21 10:29:00,79.1,66.3,29.94,ESE,111,2.0,3.0,65,0.00,,,0.00,Wunderground v.1.15,2013-07-21 14:29:00,
2013-07-21 10:30:00,79.2,66.4,29.94,ESE,111,0.0,3.0,65,0.00,,,0.00,Wunderground v.1.15,2013-07-21 14:30:00,
2013-07-21 10:31:00,79.3,66.1,29.94,ESE,111,0.0,3.0,64,0.00,,,0.00,Wunderground v.1.15,2013-07-21 14:31:00,
2013-07-21 10:32:00,79.3,66.1,29.94,SSW,208,2.0,3.0,64,0.00,,,0.00,Wunderground v.1.15,2013-07-21 14:32:00,
2013-07-21 10:34:00,79.4,66.2,29.94,SSW,209,0.0,1.0,64,0.00,,,0.00,Wunderground v.1.15,2013-07-21 14:34:00,
2013-07-21 10:35:00,79.5,66.7,29.94,SSW,209,1.0,1.0,65,0.00,,,0.00,Wunderground v.1.15,2013-07-21 14:35:00,
2013-07-21 10:36:00,79.6,66.3,29.94,WNW,286,4.0,4.0,64,0.00,,,0.00,Wunderground v.1.15,2013-07-21 14:36:00,
2013-07-21 10:37:00,79.6,66.3,29.94,ENE,73,2.0,4.0,64,0.00,,,0.00,Wunderground v.1.15,2013-07-21 14:37:00,
2013-07-21 10:39:00,79.5,65.3,29.94,NW,306,2.0,4.0,62,0.00,,,0.00,Wunderground v.1.15,2013-07-21 14:39:00,
2013-07-21 10:40:00,79.4,65.2,29.94,NW,306,1.0,4.0,62,0.00,,,0.00,Wunderground v.1.15,2013-07-21 14:40:00,
2013-07-21 10:41:00,79.3,65.6,29.94,NE,40,1.0,5.0,63,0.00,,,0.00,Wunderground v.1.15,2013-07-21 14:41:00,
2013-07-21 10:42:00,79.1,65.4,29.94,ENE,74,2.0,5.0,63,0.00,,,0.00,Wunderground v.1.15,2013-07-21 14:42:00,
2013-07-21 10:44:00,78.8,65.6,29.94,NE,55,1.0,2.0,64,0.00,,,0.00,Wunderground v.1.15,2013-07-21 14:44:00,
2013-07-21 10:45:00,78.7,65.5,29.94,ENE,59,1.0,4.0,64,0.00,,,0.00,Wunderground v.1.15,2013-07-21 14:45:00,
2013-07-21 10:47:00,78.5,64.9,29.94,East,90,1.0,4.0,63,0.00,,,0.00,Wunderground v.1.15,2013-07-21 14:47:00,
2013-07-21 10:48:00,78.5,65.3,29.94,North,360,2.0,4.0,64,0.00,,,0.00,Wunderground v.1.15,2013-07-21 14:48:00,
2013-07-21 10:50:00,78.5,66.2,29.94,North,360,0.0,4.0,66,0.00,,,0.00,Wunderground v.1.15,2013-07-21 14:50:00,
2013-07-21 10:51:00,78.7,65.9,29.94,North,360,0.0,4.0,65,0.00,,,0.00,Wunderground v.1.15,2013-07-21 14:51:00,
2013-07-21 10:52:00,78.7,65.9,29.94,North,360,0.0,4.0,65,0.00,,,0.00,Wunderground v.1.15,2013-07-21 14:52:00,
2013-07-21 10:53:00,78.9,66.1,29.94,North,360,0.0,4.0,65,0.00,,,0.00,Wunderground v.1.15,2013-07-21 14:53:00,
2013-07-21 10:55:00,79.1,66.3,29.94,North,360,1.0,2.0,65,0.00,,,0.00,Wunderground v.1.15,2013-07-21 14:55:00,
2013-07-21 10:56:00,79.2,66.4,29.94,North,360,2.0,2.0,65,0.00,,,0.00,Wunderground v.1.15,2013-07-21 14:56:00,
2013-07-21 10:57:00,79.3,66.1,29.94,ENE,57,2.0,2.0,64,0.00,,,0.00,Wunderground v.1.15,2013-07-21 14:57:00,
2013-07-21 10:58:00,79.3,66.1,29.94,ENE,58,0.0,3.0,64,0.00,,,0.00,Wunderground v.1.15,2013-07-21 14:58:00,
2013-07-21 11:00:00,79.4,66.6,29.94,NNE,24,1.0,3.0,65,0.00,,,0.00,Wunderground v.1.15,2013-07-21 15:00:00,
2013-07-21 11:01:00,79.4,65.7,29.94,NNE,24,1.0,3.0,63,0.00,,,0.00,Wunderground v.1.15,2013-07-21 15:01:00,
2013-07-21 11:02:00,79.4,65.7,29.94,North,10,2.0,3.0,63,0.00,,,0.00,Wunderground v.1.15,2013-07-21 15:02:00,
2013-07-21 11:03:00,79.4,65.7,29.94,NNW,344,1.0,3.0,63,0.00,,,0.00,Wunderground v.1.15,2013-07-21 15:03:00,
2013-07-21 11:05:00,79.2,65.5,29.94,WNW,298,3.0,4.0,63,0.00,,,0.00,Wunderground v.1.15,2013-07-21 15:05:00,
2013-07-21 11:06:00,79.2,65.5,29.94,WNW,298,1.0,4.0,63,0.00,,,0.00,Wunderground v.1.15,2013-07-21 15:06:00,
2013-07-21 11:07:00,79.1,65.0,29.94,WNW,298,0.0,4.0,62,0.00,,,0.00,Wunderground v.1.15,2013-07-21 15:07:00,
2013-07-21 11:09:00,79.2,66.0,29.94,WNW,298,1.0,4.0,64,0.00,,,0.00,Wunderground v.1.15,2013-07-21 15:09:00,
2013-07-21 11:10:00,79.3,66.1,29.94,SSE,165,5.0,5.0,64,0.00,,,0.00,Wunderground v.1.15,2013-07-21 15:10:00,
2013-07-21 11:11:00,79.3,66.1,29.94,SSE,166,1.0,5.0,64,0.00,,,0.00,Wunderground v.1.15,2013-07-21 15:11:00,
2013-07-21 11:12:00,79.4,65.7,29.94,SSE,167,1.0,5.0,63,0.00,,,0.00,Wunderground v.1.15,2013-07-21 15:12:00,
2013-07-21 11:14:00,79.3,65.6,29.94,South,178,3.0,3.0,63,0.00,,,0.00,Wunderground v.1.15,2013-07-21 15:14:00,
2013-07-21 11:15:00,79.2,66.0,29.94,South,178,2.0,3.0,64,0.00,,,0.00,Wunderground v.1.15,2013-07-21 15:15:00,
2013-07-21 11:16:00,79.2,66.4,29.94,South,178,1.0,3.0,65,0.00,,,0.00,Wunderground v.1.15,2013-07-21 15:16:00,
2013-07-21 11:17:00,79.2,66.0,29.94,South,178,4.0,4.0,64,0.00,,,0.00,Wunderground v.1.15,2013-07-21 15:17:00,
2013-07-21 11:18:00,79.2,66.0,29.94,South,178,2.0,4.0,64,0.00,,,0.00,Wunderground v.1.15,2013-07-21 15:18:00,
2013-07-21 11:19:00,79.1,66.3,29.94,South,179,2.0,4.0,65,0.00,,,0.00,Wunderground v.1.15,2013-07-21 15:19:00,
2013-07-21 11:21:00,79.2,65.5,29.95,South,178,3.0,4.0,63,0.00,,,0.00,Wunderground v.1.15,2013-07-21 15:21:00,
2013-07-21 11:22:00,79.2,65.1,29.95,South,178,3.0,4.0,62,0.00,,,0.00,Wunderground v.1.15,2013-07-21 15:22:00,
2013-07-21 11:23:00,79.2,65.1,29.94,South,178,1.0,4.0,62,0.00,,,0.00,Wunderground v.1.15,2013-07-21 15:23:00,
2013-07-21 11:24:00,79.2,65.5,29.94,South,178,1.0,2.0,63,0.00,,,0.00,Wunderground v.1.15,2013-07-21 15:24:00,
2013-07-21 11:26:00,79.3,66.1,29.94,South,178,0.0,3.0,64,0.00,,,0.00,Wunderground v.1.15,2013-07-21 15:26:00,
2013-07-21 11:27:00,79.5,65.8,29.94,SE,139,1.0,3.0,63,0.00,,,0.00,Wunderground v.1.15,2013-07-21 15:27:00,
2013-07-21 11:28:00,79.6,65.9,29.94,SE,124,0.0,3.0,63,0.00,,,0.00,Wunderground v.1.15,2013-07-21 15:28:00,
2013-07-21 11:30:00,79.8,65.2,29.94,ESE,105,3.0,3.0,61,0.00,,,0.00,Wunderground v.1.15,2013-07-21 15:30:00,
2013-07-21 11:31:00,79.8,64.7,29.94,SSE,163,4.0,4.0,60,0.00,,,0.00,Wunderground v.1.15,2013-07-21 15:31:00,
2013-07-21 11:32:00,79.9,64.8,29.95,WSW,255,4.0,4.0,60,0.00,,,0.00,Wunderground v.1.15,2013-07-21 15:32:00,
2013-07-21 11:33:00,79.8,64.2,29.95,WNW,284,1.0,5.0,59,0.00,,,0.00,Wunderground v.1.15,2013-07-21 15:33:00,
2013-07-21 11:34:00,79.7,64.1,29.95,WNW,283,1.0,5.0,59,0.00,,,0.00,Wunderground v.1.15,2013-07-21 15:34:00,
2013-07-21 11:35:00,79.7,64.1,29.95,WNW,284,1.0,2.0,59,0.00,,,0.00,Wunderground v.1.15,2013-07-21 15:35:00,
2013-07-21 11:36:00,79.7,64.1,29.95,WNW,284,0.0,2.0,59,0.00,,,0.00,Wunderground v.1.15,2013-07-21 15:36:00,
2013-07-21 11:37:00,79.7,64.6,29.95,WNW,284,1.0,2.0,60,0.00,,,0.00,Wunderground v.1.15,2013-07-21 15:37:00,
2013-07-21 11:38:00,79.7,64.6,29.95,WNW,284,1.0,2.0,60,0.00,,,0.00,Wunderground v.1.15,2013-07-21 15:38:00,
2013-07-21 11:39:00,79.8,65.2,29.95,WNW,284,1.0,2.0,61,0.00,,,0.00,Wunderground v.1.15,2013-07-21 15:39:00,
2013-07-21 11:40:00,79.9,65.2,29.95,WNW,284,1.0,2.0,61,0.00,,,0.00,Wunderground v.1.15,2013-07-21 15:40:00,
2013-07-21 11:41:00,80.0,65.8,29.95,WNW,284,0.0,2.0,62,0.00,,,0.00,Wunderground v.1.15,2013-07-21 15:41:00,
2013-07-21 11:42:00,80.2,66.0,29.95,WNW,284,0.0,2.0,62,0.00,,,0.00,Wunderground v.1.15,2013-07-21 15:42:00,
2013-07-21 11:43:00,80.2,66.0,29.95,WNW,282,2.0,2.0,62,0.00,,,0.00,Wunderground v.1.15,2013-07-21 15:43:00,
2013-07-21 11:45:00,80.4,66.6,29.95,SSW,207,1.0,2.0,63,0.00,,,0.00,Wunderground v.1.15,2013-07-21 15:45:00,
2013-07-21 11:46:00,80.6,66.4,29.95,SSW,207,0.0,2.0,62,0.00,,,0.00,Wunderground v.1.15,2013-07-21 15:46:00,
2013-07-21 11:48:00,80.7,66.5,29.95,ENE,70,1.0,4.0,62,0.00,,,0.00,Wunderground v.1.15,2013-07-21 15:48:00,
2013-07-21 11:50:00,80.7,66.0,29.95,ENE,66,1.0,4.0,61,0.00,,,0.00,Wunderground v.1.15,2013-07-21 15:50:00,
2013-07-21 11:52:00,80.7,66.0,29.95,East,80,0.0,4.0,61,0.00,,,0.00,Wunderground v.1.15,2013-07-21 15:52:00,
2013-07-21 11:53:00,80.8,66.1,29.95,SSW,195,1.0,4.0,61,0.00,,,0.00,Wunderground v.1.15,2013-07-21 15:53:00,
2013-07-21 11:55:00,80.9,66.2,29.95,SSE,156,1.0,3.0,61,0.00,,,0.00,Wunderground v.1.15,2013-07-21 15:55:00,
2013-07-21 11:57:00,81.0,66.3,29.95,SSE,153,0.0,3.0,61,0.00,,,0.00,Wunderground v.1.15,2013-07-21 15:57:00,
2013-07-21 11:58:00,81.1,66.8,29.95,SSE,159,2.0,3.0,62,0.00,,,0.00,Wunderground v.1.15,2013-07-21 15:58:00,
2013-07-21 11:59:00,81.1,66.4,29.95,SSW,202,1.0,4.0,61,0.00,,,0.00,Wunderground v.1.15,2013-07-21 15:59:00,
2013-07-21 12:00:00,81.0,66.3,29.94,SSW,208,1.0,4.0,61,0.00,,,0.00,Wunderground v.1.15,2013-07-21 16:00:00,
2013-07-21 12:02:00,81.1,66.8,29.94,SSW,208,0.0,4.0,62,0.00,,,0.00,Wunderground v.1.15,2013-07-21 16:02:00,
2013-07-21 12:03:00,81.2,66.9,29.94,South,176,2.0,4.0,62,0.00,,,0.00,Wunderground v.1.15,2013-07-21 16:03:00,
2013-07-21 12:04:00,81.4,67.1,29.94,SSE,155,1.0,2.0,62,0.00,,,0.00,Wunderground v.1.15,2013-07-21 16:04:00,
2013-07-21 12:05:00,81.6,66.4,29.94,SSE,155,1.0,3.0,60,0.00,,,0.00,Wunderground v.1.15,2013-07-21 16:05:00,
2013-07-21 12:07:00,81.7,66.5,29.94,SSE,160,1.0,4.0,60,0.00,,,0.00,Wunderground v.1.15,2013-07-21 16:07:00,
2013-07-21 12:09:00,81.7,66.0,29.95,SSE,160,2.0,4.0,59,0.00,,,0.00,Wunderground v.1.15,2013-07-21 16:09:00,
2013-07-21 12:10:00,81.7,66.9,29.95,SSE,163,0.0,4.0,61,0.00,,,0.00,Wunderground v.1.15,2013-07-21 16:10:00,
2013-07-21 12:11:00,81.6,66.8,29.95,ESE,102,2.0,4.0,61,0.00,,,0.00,Wunderground v.1.15,2013-07-21 16:11:00,
2013-07-21 12:12:00,81.5,65.8,29.95,ENE,77,2.0,4.0,59,0.00,,,0.00,Wunderground v.1.15,2013-07-21 16:12:00,
2013-07-21 12:14:00,81.2,66.0,29.94,ENE,74,2.0,4.0,60,0.00,,,0.00,Wunderground v.1.15,2013-07-21 16:14:00,
2013-07-21 12:15:00,81.0,66.3,29.94,ENE,74,0.0,2.0,61,0.00,,,0.00,Wunderground v.1.15,2013-07-21 16:15:00,
2013-07-21 12:16:00,81.0,66.3,29.95,ENE,77,1.0,2.0,61,0.00,,,0.00,Wunderground v.1.15,2013-07-21 16:16:00,
2013-07-21 12:17:00,80.9,66.7,29.95,East,87,2.0,5.0,62,0.00,,,0.00,Wunderground v.1.15,2013-07-21 16:17:00,
2013-07-21 12:19:00,80.7,66.0,29.95,South,173,0.0,5.0,61,0.00,,,0.00,Wunderground v.1.15,2013-07-21 16:19:00,
2013-07-21 12:20:00,80.7,66.0,29.95,SE,144,4.0,5.0,61,0.00,,,0.00,Wunderground v.1.15,2013-07-21 16:20:00,
2013-07-21 12:21:00,80.7,65.5,29.95,SSE,149,2.0,5.0,60,0.00,,,0.00,Wunderground v.1.15,2013-07-21 16:21:00,
2013-07-21 12:22:00,80.6,65.9,29.95,South,182,3.0,5.0,61,0.00,,,0.00,Wunderground v.1.15,2013-07-21 16:22:00,
2013-07-21 12:24:00,80.6,66.4,29.95,SSW,197,2.0,3.0,62,0.00,,,0.00,Wunderground v.1.15,2013-07-21 16:24:00,
2013-07-21 12:25:00,80.4,66.2,29.95,SSW,197,1.0,3.0,62,0.00,,,0.00,Wunderground v.1.15,2013-07-21 16:25:00,
2013-07-21 12:26:00,80.4,67.1,29.95,SSW,197,0.0,3.0,64,0.00,,,0.00,Wunderground v.1.15,2013-07-21 16:26:00,
2013-07-21 12:27:00,80.4,67.1,29.95,SSW,198,1.0,3.0,64,0.00,,,0.00,Wunderground v.1.15,2013-07-21 16:27:00,
2013-07-21 12:28:00,80.5,66.7,29.95,SSW,198,2.0,3.0,63,0.00,,,0.00,Wunderground v.1.15,2013-07-21 16:28:00,
2013-07-21 12:30:00,80.4,66.2,29.95,SSW,201,3.0,4.0,62,0.00,,,0.00,Wunderground v.1.15,2013-07-21 16:30:00,
2013-07-21 12:31:00,80.3,66.1,29.95,SSW,196,2.0,4.0,62,0.00,,,0.00,Wunderground v.1.15,2013-07-21 16:31:00,
2013-07-21 12:32:00,80.2,66.0,29.95,SSW,210,0.0,4.0,62,0.00,,,0.00,Wunderground v.1.15,2013-07-21 16:32:00,
2013-07-21 12:33:00,80.2,65.5,29.95,SSW,209,1.0,4.0,61,0.00,,,0.00,Wunderground v.1.15,2013-07-21 16:33:00,
2013-07-21 12:35:00,80.1,65.4,29.95,SSW,209,0.0,3.0,61,0.00,,,0.00,Wunderground v.1.15,2013-07-21 16:35:00,
2013-07-21 12:36:00,80.1,65.9,29.95,SSW,209,1.0,3.0,62,0.00,,,0.00,Wunderground v.1.15,2013-07-21 16:36:00,
2013-07-21 12:37:00,80.1,65.9,29.95,South,184,2.0,3.0,62,0.00,,,0.00,Wunderground v.1.15,2013-07-21 16:37:00,
2013-07-21 12:38:00,80.2,65.5,29.95,South,185,1.0,3.0,61,0.00,,,0.00,Wunderground v.1.15,2013-07-21 16:38:00,
2013-07-21 12:40:00,80.2,66.0,29.95,WSW,238,3.0,4.0,62,0.00,,,0.00,Wunderground v.1.15,2013-07-21 16:40:00,
2013-07-21 12:41:00,80.1,65.4,29.95,WSW,241,3.0,4.0,61,0.00,,,0.00,Wunderground v.1.15,2013-07-21 16:41:00,
2013-07-21 12:42:00,80.0,65.3,29.95,WSW,241,4.0,5.0,61,0.00,,,0.00,Wunderground v.1.15,2013-07-21 16:42:00,
2013-07-21 12:43:00,80.0,65.8,29.95,SSW,196,2.0,5.0,62,0.00,,,0.00,Wunderground v.1.15,2013-07-21 16:43:00,
2013-07-21 12:46:00,80.3,67.0,29.95,SSW,200,3.0,5.0,64,0.00,,,0.00,Wunderground v.1.15,2013-07-21 16:46:00,
2013-07-21 12:47:00,80.4,66.2,29.95,South,174,1.0,5.0,62,0.00,,,0.00,Wunderground v.1.15,2013-07-21 16:47:00,
2013-07-21 12:49:00,80.7,66.5,29.95,South,180,1.0,5.0,62,0.00,,,0.00,Wunderground v.1.15,2013-07-21 16:49:00,
2013-07-21 12:51:00,81.0,66.8,29.95,SSW,207,2.0,5.0,62,0.00,,,0.00,Wunderground v.1.15,2013-07-21 16:51:00,
2013-07-21 12:52:00,81.1,66.4,29.95,SSW,207,2.0,5.0,61,0.00,,,0.00,Wunderground v.1.15,2013-07-21 16:52:00,
2013-07-21 12:54:00,81.3,67.0,29.95,SW,220,0.0,5.0,62,0.00,,,0.00,Wunderground v.1.15,2013-07-21 16:54:00,
2013-07-21 12:56:00,81.8,67.0,29.95,SSW,211,1.0,2.0,61,0.00,,,0.00,Wunderground v.1.15,2013-07-21 16:56:00,
2013-07-21 12:57:00,81.9,66.6,29.95,SSW,211,1.0,2.0,60,0.00,,,0.00,Wunderground v.1.15,2013-07-21 16:57:00,
2013-07-21 12:59:00,82.3,66.5,29.95,ENE,71,1.0,3.0,59,0.00,,,0.00,Wunderground v.1.15,2013-07-21 16:59:00,
2013-07-21 13:01:00,82.3,66.5,29.95,ENE,57,1.0,4.0,59,0.00,,,0.00,Wunderground v.1.15,2013-07-21 17:01:00,
2013-07-21 13:02:00,82.3,66.5,29.95,ENE,57,2.0,4.0,59,0.00,,,0.00,Wunderground v.1.15,2013-07-21 17:02:00,
2013-07-21 13:03:00,82.3,66.5,29.95,East,79,1.0,4.0,59,0.00,,,0.00,Wunderground v.1.15,2013-07-21 17:03:00,
2013-07-21 13:04:00,82.3,66.5,29.95,ESE,105,3.0,4.0,59,0.00,,,0.00,Wunderground v.1.15,2013-07-21 17:04:00,
2013-07-21 13:06:00,82.2,66.9,29.95,SSE,159,0.0,5.0,60,0.00,,,0.00,Wunderground v.1.15,2013-07-21 17:06:00,
2013-07-21 13:07:00,82.1,66.8,29.95,SSE,159,1.0,5.0,60,0.00,,,0.00,Wunderground v.1.15,2013-07-21 17:07:00,
2013-07-21 13:08:00,82.0,67.2,29.95,SSE,159,1.0,5.0,61,0.00,,,0.00,Wunderground v.1.15,2013-07-21 17:08:00,
2013-07-21 13:09:00,82.0,66.3,29.95,SSE,162,1.0,5.0,59,0.00,,,0.00,Wunderground v.1.15,2013-07-21 17:09:00,
2013-07-21 13:11:00,81.7,65.5,29.95,SSE,162,1.0,5.0,58,0.00,,,0.00,Wunderground v.1.15,2013-07-21 17:11:00,
2013-07-21 13:12:00,81.6,65.4,29.95,SSE,162,1.0,5.0,58,0.00,,,0.00,Wunderground v.1.15,2013-07-21 17:12:00,
2013-07-21 13:13:00,81.5,65.8,29.95,SSE,162,1.0,5.0,59,0.00,,,0.00,Wunderground v.1.15,2013-07-21 17:13:00,
2013-07-21 13:14:00,81.4,66.2,29.95,SSE,162,0.0,1.0,60,0.00,,,0.00,Wunderground v.1.15,2013-07-21 17:14:00,
2013-07-21 13:16:00,81.5,66.8,29.95,SE,139,2.0,3.0,61,0.00,,,0.00,Wunderground v.1.15,2013-07-21 17:16:00,
2013-07-21 13:17:00,81.5,66.8,29.94,SE,139,2.0,3.0,61,0.00,,,0.00,Wunderground v.1.15,2013-07-21 17:17:00,
2013-07-21 13:18:00,81.4,66.2,29.94,ENE,68,3.0,4.0,60,0.00,,,0.00,Wunderground v.1.15,2013-07-21 17:18:00,
2013-07-21 13:19:00,81.2,66.0,29.94,ENE,68,0.0,4.0,60,0.00,,,0.00,Wunderground v.1.15,2013-07-21 17:19:00,
2013-07-21 13:22:00,81.2,66.5,29.94,East,90,1.0,4.0,61,0.00,,,0.00,Wunderground v.1.15,2013-07-21 17:22:00,
2013-07-21 13:23:00,81.2,66.5,29.94,East,90,1.0,4.0,61,0.00,,,0.00,Wunderground v.1.15,2013-07-21 17:23:00,
2013-07-21 13:25:00,81.2,66.9,29.94,East,90,0.0,2.0,62,0.00,,,0.00,Wunderground v.1.15,2013-07-21 17:25:00,
2013-07-21 13:27:00,81.3,66.6,29.94,East,90,0.0,2.0,61,0.00,,,0.00,Wunderground v.1.15,2013-07-21 17:27:00,
2013-07-21 13:28:00,81.4,66.7,29.95,SSE,147,2.0,2.0,61,0.00,,,0.00,Wunderground v.1.15,2013-07-21 17:28:00,
2013-07-21 13:31:00,81.5,66.8,29.95,SSE,163,2.0,5.0,61,0.00,,,0.00,Wunderground v.1.15,2013-07-21 17:31:00,
2013-07-21 13:32:00,81.5,66.3,29.95,SE,131,2.0,5.0,60,0.00,,,0.00,Wunderground v.1.15,2013-07-21 17:32:00,
2013-07-21 13:34:00,81.5,66.8,29.95,SSE,150,0.0,5.0,61,0.00,,,0.00,Wunderground v.1.15,2013-07-21 17:34:00,
2013-07-21 13:36:00,81.6,66.8,29.95,SSE,163,4.0,4.0,61,0.00,,,0.00,Wunderground v.1.15,2013-07-21 17:36:00,
2013-07-21 13:37:00,81.8,66.1,29.95,SSE,167,1.0,5.0,59,0.00,,,0.00,Wunderground v.1.15,2013-07-21 17:37:00,
2013-07-21 13:38:00,81.8,66.1,29.95,SSE,157,7.0,7.0,59,0.00,,,0.00,Wunderground v.1.15,2013-07-21 17:38:00,
2013-07-21 13:39:00,81.9,65.7,29.95,South,176,2.0,7.0,58,0.00,,,0.00,Wunderground v.1.15,2013-07-21 17:39:00,
2013-07-21 13:41:00,82.1,65.9,29.94,SSE,151,1.0,7.0,58,0.00,,,0.00,Wunderground v.1.15,2013-07-21 17:41:00,
2013-07-21 13:42:00,82.3,66.0,29.94,SE,141,2.0,7.0,58,0.00,,,0.00,Wunderground v.1.15,2013-07-21 17:42:00,
2013-07-21 13:43:00,82.3,66.0,29.94,SSE,149,2.0,7.0,58,0.00,,,0.00,Wunderground v.1.15,2013-07-21 17:43:00,
2013-07-21 13:44:00,82.3,66.0,29.94,SSE,163,2.0,7.0,58,0.00,,,0.00,Wunderground v.1.15,2013-07-21 17:44:00,
2013-07-21 13:46:00,82.3,66.0,29.94,ESE,117,1.0,4.0,58,0.00,,,0.00,Wunderground v.1.15,2013-07-21 17:46:00,
2013-07-21 13:47:00,82.2,66.0,29.94,ESE,116,2.0,4.0,58,0.00,,,0.00,Wunderground v.1.15,2013-07-21 17:47:00,
2013-07-21 13:48:00,82.1,65.9,29.94,ESE,116,1.0,4.0,58,0.00,,,0.00,Wunderground v.1.15,2013-07-21 17:48:00,
2013-07-21 13:49:00,82.0,65.8,29.94,ESE,116,1.0,4.0,58,0.00,,,0.00,Wunderground v.1.15,2013-07-21 17:49:00,
2013-07-21 13:51:00,81.9,66.2,29.94,ESE,116,1.0,4.0,59,0.00,,,0.00,Wunderground v.1.15,2013-07-21 17:51:00,
2013-07-21 13:53:00,81.8,66.1,29.94,ESE,116,1.0,4.0,59,0.00,,,0.00,Wunderground v.1.15,2013-07-21 17:53:00,
2013-07-21 13:54:00,81.8,66.1,29.95,SSE,157,0.0,1.0,59,0.00,,,0.00,Wunderground v.1.15,2013-07-21 17:54:00,
2013-07-21 13:57:00,81.8,66.1,29.95,SSE,157,0.0,3.0,59,0.00,,,0.00,Wunderground v.1.15,2013-07-21 17:57:00,
2013-07-21 13:58:00,81.8,66.6,29.95,SSE,157,1.0,3.0,60,0.00,,,0.00,Wunderground v.1.15,2013-07-21 17:58:00,
2013-07-21 13:59:00,81.8,66.6,29.95,SSE,157,0.0,3.0,60,0.00,,,0.00,Wunderground v.1.15,2013-07-21 17:59:00,
2013-07-21 14:00:00,81.9,66.6,29.95,SSE,157,1.0,3.0,60,0.00,,,0.00,Wunderground v.1.15,2013-07-21 18:00:00,
2013-07-21 14:02:00,82.0,65.8,29.94,South,174,1.0,5.0,58,0.00,,,0.00,Wunderground v.1.15,2013-07-21 18:02:00,
2013-07-21 14:03:00,81.9,65.7,29.94,South,174,2.0,5.0,58,0.00,,,0.00,Wunderground v.1.15,2013-07-21 18:03:00,
2013-07-21 14:05:00,81.9,66.2,29.95,South,174,2.0,2.0,59,0.00,,,0.00,Wunderground v.1.15,2013-07-21 18:05:00,
2013-07-21 14:07:00,81.9,66.2,29.94,South,178,1.0,2.0,59,0.00,,,0.00,Wunderground v.1.15,2013-07-21 18:07:00,
2013-07-21 14:08:00,81.8,65.6,29.94,ESE,120,3.0,4.0,58,0.00,,,0.00,Wunderground v.1.15,2013-07-21 18:08:00,
2013-07-21 14:09:00,81.8,64.6,29.94,ESE,120,1.0,4.0,56,0.00,,,0.00,Wunderground v.1.15,2013-07-21 18:09:00,
2013-07-21 14:10:00,81.7,64.5,29.94,ESE,120,1.0,4.0,56,0.00,,,0.00,Wunderground v.1.15,2013-07-21 18:10:00,
2013-07-21 14:12:00,81.9,65.2,29.94,ESE,120,0.0,4.0,57,0.00,,,0.00,Wunderground v.1.15,2013-07-21 18:12:00,
2013-07-21 14:13:00,82.1,64.8,29.94,SSW,199,2.0,4.0,56,0.00,,,0.00,Wunderground v.1.15,2013-07-21 18:13:00,
2013-07-21 14:14:00,82.1,64.8,29.94,SSW,199,2.0,4.0,56,0.00,,,0.00,Wunderground v.1.15,2013-07-21 18:14:00,
2013-07-21 14:15:00,82.1,64.8,29.94,WSW,238,4.0,5.0,56,0.00,,,0.00,Wunderground v.1.15,2013-07-21 18:15:00,
2013-07-21 14:17:00,82.0,64.8,29.94,WSW,238,0.0,5.0,56,0.00,,,0.00,Wunderground v.1.15,2013-07-21 18:17:00,
2013-07-21 14:19:00,82.2,66.0,29.94,SSW,209,3.0,5.0,58,0.00,,,0.00,Wunderground v.1.15,2013-07-21 18:19:00,
2013-07-21 14:20:00,82.5,66.7,29.94,South,173,3.0,5.0,59,0.00,,,0.00,Wunderground v.1.15,2013-07-21 18:20:00,
2013-07-21 14:22:00,82.7,64.9,29.94,South,173,0.0,5.0,55,0.00,,,0.00,Wunderground v.1.15,2013-07-21 18:22:00,
2013-07-21 14:24:00,83.0,65.2,29.94,South,173,1.0,5.0,55,0.00,,,0.00,Wunderground v.1.15,2013-07-21 18:24:00,
2013-07-21 14:25:00,83.2,65.9,29.94,SSE,166,4.0,6.0,56,0.00,,,0.00,Wunderground v.1.15,2013-07-21 18:25:00,
2013-07-21 14:27:00,83.0,64.6,29.94,SW,226,2.0,6.0,54,0.00,,,0.00,Wunderground v.1.15,2013-07-21 18:27:00,
2013-07-21 14:29:00,82.7,65.4,29.94,South,172,2.0,6.0,56,0.00,,,0.00,Wunderground v.1.15,2013-07-21 18:29:00,
2013-07-21 14:30:00,82.8,65.5,29.94,South,169,6.0,7.0,56,0.00,,,0.00,Wunderground v.1.15,2013-07-21 18:30:00,
2013-07-21 14:33:00,82.7,65.4,29.94,South,183,1.0,7.0,56,0.00,,,0.00,Wunderground v.1.15,2013-07-21 18:33:00,
2013-07-21 14:35:00,82.7,64.9,29.94,South,183,0.0,2.0,55,0.00,,,0.00,Wunderground v.1.15,2013-07-21 18:35:00,
2013-07-21 14:36:00,82.7,65.4,29.94,South,183,1.0,2.0,56,0.00,,,0.00,Wunderground v.1.15,2013-07-21 18:36:00,
2013-07-21 14:38:00,82.6,65.3,29.94,South,183,1.0,2.0,56,0.00,,,0.00,Wunderground v.1.15,2013-07-21 18:38:00,
2013-07-21 14:40:00,82.4,66.1,29.94,South,183,1.0,3.0,58,0.00,,,0.00,Wunderground v.1.15,2013-07-21 18:40:00,
2013-07-21 14:41:00,82.2,65.4,29.94,South,183,0.0,3.0,57,0.00,,,0.00,Wunderground v.1.15,2013-07-21 18:41:00,
2013-07-21 14:43:00,82.0,65.3,29.94,SSW,205,2.0,3.0,57,0.00,,,0.00,Wunderground v.1.15,2013-07-21 18:43:00,
2013-07-21 14:45:00,81.7,65.5,29.94,SSW,205,1.0,2.0,58,0.00,,,0.00,Wunderground v.1.15,2013-07-21 18:45:00,
2013-07-21 14:46:00,81.7,65.5,29.94,SW,231,4.0,4.0,58,0.00,,,0.00,Wunderground v.1.15,2013-07-21 18:46:00,
2013-07-21 14:48:00,81.3,64.6,29.94,SW,236,2.0,4.0,57,0.00,,,0.00,Wunderground v.1.15,2013-07-21 18:48:00,
2013-07-21 14:50:00,81.2,65.5,29.94,SW,230,2.0,4.0,59,0.00,,,0.00,Wunderground v.1.15,2013-07-21 18:50:00,
2013-07-21 14:51:00,81.2,65.0,29.94,South,188,1.0,4.0,58,0.00,,,0.00,Wunderground v.1.15,2013-07-21 18:51:00,
2013-07-21 14:53:00,81.2,66.0,29.94,SSW,194,3.0,4.0,60,0.00,,,0.00,Wunderground v.1.15,2013-07-21 18:53:00,
2013-07-21 14:55:00,81.2,65.5,29.94,SSW,210,2.0,4.0,59,0.00,,,0.00,Wunderground v.1.15,2013-07-21 18:55:00,
2013-07-21 14:56:00,81.2,66.0,29.94,SSW,202,4.0,4.0,60,0.00,,,0.00,Wunderground v.1.15,2013-07-21 18:56:00,
2013-07-21 14:58:00,81.2,64.5,29.94,SSW,202,2.0,4.0,57,0.00,,,0.00,Wunderground v.1.15,2013-07-21 18:58:00,
2013-07-21 15:00:00,81.5,64.3,29.94,SSW,194,1.0,6.0,56,0.00,,,0.00,Wunderground v.1.15,2013-07-21 19:00:00,
2013-07-21 15:01:00,81.6,64.4,29.94,SSW,194,2.0,6.0,56,0.00,,,0.00,Wunderground v.1.15,2013-07-21 19:01:00,
2013-07-21 15:03:00,81.8,64.6,29.94,SSW,194,0.0,6.0,56,0.00,,,0.00,Wunderground v.1.15,2013-07-21 19:03:00,
2013-07-21 15:06:00,82.2,65.4,29.94,SSW,194,1.0,2.0,57,0.00,,,0.00,Wunderground v.1.15,2013-07-21 19:06:00,
2013-07-21 15:08:00,82.3,64.5,29.94,SSW,194,0.0,2.0,55,0.00,,,0.00,Wunderground v.1.15,2013-07-21 19:08:00,
2013-07-21 15:11:00,82.4,64.6,29.94,South,182,0.0,4.0,55,0.00,,,0.00,Wunderground v.1.15,2013-07-21 19:11:00,
2013-07-21 15:12:00,82.4,64.6,29.94,South,182,0.0,4.0,55,0.00,,,0.00,Wunderground v.1.15,2013-07-21 19:12:00,
2013-07-21 15:13:00,82.3,64.5,29.94,South,182,0.0,4.0,55,0.00,,,0.00,Wunderground v.1.15,2013-07-21 19:13:00,
2013-07-21 15:16:00,82.4,66.6,29.94,South,182,0.0,1.0,59,0.00,,,0.00,Wunderground v.1.15,2013-07-21 19:16:00,
2013-07-21 15:17:00,82.4,66.1,29.94,South,182,0.0,1.0,58,0.00,,,0.00,Wunderground v.1.15,2013-07-21 19:17:00,
2013-07-21 15:18:00,82.3,66.0,29.94,South,182,0.0,1.0,58,0.00,,,0.00,Wunderground v.1.15,2013-07-21 19:18:00,
2013-07-21 15:21:00,82.2,66.0,29.94,South,182,0.0,1.0,58,0.00,,,0.00,Wunderground v.1.15,2013-07-21 19:21:00,
2013-07-21 15:22:00,82.2,66.0,29.94,South,182,0.0,1.0,58,0.00,,,0.00,Wunderground v.1.15,2013-07-21 19:22:00,
2013-07-21 15:23:00,82.3,66.5,29.94,South,182,0.0,1.0,59,0.00,,,0.00,Wunderground v.1.15,2013-07-21 19:23:00,
2013-07-21 15:24:00,82.3,66.0,29.94,South,182,0.0,0.0,58,0.00,,,0.00,Wunderground v.1.15,2013-07-21 19:24:00,
2013-07-21 15:26:00,82.3,65.0,29.94,South,182,1.0,1.0,56,0.00,,,0.00,Wunderground v.1.15,2013-07-21 19:26:00,
2013-07-21 15:27:00,82.3,65.0,29.94,South,182,0.0,1.0,56,0.00,,,0.00,Wunderground v.1.15,2013-07-21 19:27:00,
2013-07-21 15:28:00,82.4,67.1,29.94,South,182,0.0,1.0,60,0.00,,,0.00,Wunderground v.1.15,2013-07-21 19:28:00,
2013-07-21 15:29:00,82.4,66.1,29.94,South,182,0.0,1.0,58,0.00,,,0.00,Wunderground v.1.15,2013-07-21 19:29:00,
2013-07-21 15:32:00,82.4,65.1,29.94,South,182,0.0,1.0,56,0.00,,,0.00,Wunderground v.1.15,2013-07-21 19:32:00,
2013-07-21 15:33:00,82.5,65.2,29.94,South,182,0.0,1.0,56,0.00,,,0.00,Wunderground v.1.15,2013-07-21 19:33:00,
2013-07-21 15:34:00,82.5,65.7,29.94,South,182,0.0,1.0,57,0.00,,,0.00,Wunderground v.1.15,2013-07-21 19:34:00,
2013-07-21 15:37:00,82.6,65.8,29.94,South,182,0.0,1.0,57,0.00,,,0.00,Wunderground v.1.15,2013-07-21 19:37:00,
2013-07-21 15:38:00,82.6,66.8,29.94,South,182,1.0,1.0,59,0.00,,,0.00,Wunderground v.1.15,2013-07-21 19:38:00,
2013-07-21 15:40:00,82.6,65.8,29.94,South,182,0.0,1.0,57,0.00,,,0.00,Wunderground v.1.15,2013-07-21 19:40:00,
2013-07-21 15:42:00,82.6,67.3,29.94,South,182,0.0,1.0,60,0.00,,,0.00,Wunderground v.1.15,2013-07-21 19:42:00,
2013-07-21 15:43:00,82.6,67.3,29.94,South,182,0.0,1.0,60,0.00,,,0.00,Wunderground v.1.15,2013-07-21 19:43:00,
2013-07-21 15:45:00,82.5,66.7,29.94,South,182,0.0,0.0,59,0.00,,,0.00,Wunderground v.1.15,2013-07-21 19:45:00,
2013-07-21 15:47:00,82.5,67.2,29.94,South,182,1.0,1.0,60,0.00,,,0.00,Wunderground v.1.15,2013-07-21 19:47:00,
2013-07-21 15:48:00,82.4,68.5,29.94,South,182,0.0,2.0,63,0.00,,,0.00,Wunderground v.1.15,2013-07-21 19:48:00,
2013-07-21 15:50:00,82.2,66.9,29.94,South,182,0.0,2.0,60,0.00,,,0.00,Wunderground v.1.15,2013-07-21 19:50:00,
2013-07-21 15:52:00,81.9,67.6,29.94,South,182,0.0,2.0,62,0.00,,,0.00,Wunderground v.1.15,2013-07-21 19:52:00,
2013-07-21 15:53:00,81.8,67.5,29.94,South,182,2.0,2.0,62,0.00,,,0.00,Wunderground v.1.15,2013-07-21 19:53:00,
2013-07-21 15:54:00,81.8,67.5,29.94,South,182,2.0,2.0,62,0.00,,,0.00,Wunderground v.1.15,2013-07-21 19:54:00,
2013-07-21 15:55:00,81.7,65.5,29.94,South,182,1.0,3.0,58,0.00,,,0.00,Wunderground v.1.15,2013-07-21 19:55:00,
2013-07-21 15:58:00,81.8,66.6,29.94,South,184,2.0,3.0,60,0.00,,,0.00,Wunderground v.1.15,2013-07-21 19:58:00,
2013-07-21 15:59:00,81.8,66.6,29.94,South,184,1.0,3.0,60,0.00,,,0.00,Wunderground v.1.15,2013-07-21 19:59:00,
2013-07-21 16:00:00,82.1,66.4,29.94,South,184,1.0,3.0,59,0.00,,,0.00,Wunderground v.1.15,2013-07-21 20:00:00,
2013-07-21 16:03:00,82.7,65.9,29.94,South,184,1.0,3.0,57,0.00,,,0.00,Wunderground v.1.15,2013-07-21 20:03:00,
2013-07-21 16:04:00,82.8,65.5,29.94,South,184,0.0,3.0,56,0.00,,,0.00,Wunderground v.1.15,2013-07-21 20:04:00,
2013-07-21 16:06:00,83.1,65.3,29.94,South,180,1.0,3.0,55,0.00,,,0.00,Wunderground v.1.15,2013-07-21 20:06:00,
2013-07-21 16:08:00,83.2,65.4,29.94,SSW,198,2.0,6.0,55,0.00,,,0.00,Wunderground v.1.15,2013-07-21 20:08:00,
2013-07-21 16:09:00,83.2,65.4,29.94,South,175,4.0,6.0,55,0.00,,,0.00,Wunderground v.1.15,2013-07-21 20:09:00,
2013-07-21 16:11:00,83.1,64.2,29.94,SSE,162,2.0,6.0,53,0.00,,,0.00,Wunderground v.1.15,2013-07-21 20:11:00,
2013-07-21 16:13:00,83.3,65.4,29.94,South,188,2.0,6.0,55,0.00,,,0.00,Wunderground v.1.15,2013-07-21 20:13:00,
2013-07-21 16:14:00,83.3,65.4,29.94,South,188,1.0,6.0,55,0.00,,,0.00,Wunderground v.1.15,2013-07-21 20:14:00,
2013-07-21 16:16:00,83.5,64.0,29.94,SSW,196,4.0,5.0,52,0.00,,,0.00,Wunderground v.1.15,2013-07-21 20:16:00,
2013-07-21 16:18:00,83.4,65.0,29.94,SSW,195,3.0,5.0,54,0.00,,,0.00,Wunderground v.1.15,2013-07-21 20:18:00,
2013-07-21 16:19:00,83.5,65.1,29.94,SSW,195,3.0,5.0,54,0.00,,,0.00,Wunderground v.1.15,2013-07-21 20:19:00,
2013-07-21 16:20:00,83.5,64.6,29.94,South,170,2.0,5.0,53,0.00,,,0.00,Wunderground v.1.15,2013-07-21 20:20:00,
2013-07-21 16:21:00,83.5,64.0,29.94,SSE,157,3.0,5.0,52,0.00,,,0.00,Wunderground v.1.15,2013-07-21 20:21:00,
2013-07-21 16:23:00,83.4,63.9,29.94,SSE,163,4.0,5.0,52,0.00,,,0.00,Wunderground v.1.15,2013-07-21 20:23:00,
2013-07-21 16:24:00,83.4,64.5,29.94,SSE,163,4.0,5.0,53,0.00,,,0.00,Wunderground v.1.15,2013-07-21 20:24:00,
2013-07-21 16:25:00,83.3,63.8,29.94,SSE,163,1.0,2.0,52,0.00,,,0.00,Wunderground v.1.15,2013-07-21 20:25:00,
2013-07-21 16:27:00,83.1,63.7,29.94,SSE,149,1.0,4.0,52,0.00,,,0.00,Wunderground v.1.15,2013-07-21 20:27:00,
2013-07-21 16:29:00,83.0,64.6,29.94,SSE,149,1.0,4.0,54,0.00,,,0.00,Wunderground v.1.15,2013-07-21 20:29:00,
2013-07-21 16:30:00,83.0,64.6,29.94,SSE,150,1.0,4.0,54,0.00,,,0.00,Wunderground v.1.15,2013-07-21 20:30:00,
2013-07-21 16:32:00,83.0,64.6,29.93,SSE,150,0.0,4.0,54,0.00,,,0.00,Wunderground v.1.15,2013-07-21 20:32:00,
2013-07-21 16:34:00,83.0,65.2,29.93,SSE,150,0.0,1.0,55,0.00,,,0.00,Wunderground v.1.15,2013-07-21 20:34:00,
2013-07-21 16:35:00,83.1,64.2,29.93,SSE,150,0.0,1.0,53,0.00,,,0.00,Wunderground v.1.15,2013-07-21 20:35:00,
2013-07-21 16:38:00,83.4,65.0,29.93,SSE,150,0.0,1.0,54,0.00,,,0.00,Wunderground v.1.15,2013-07-21 20:38:00,
2013-07-21 16:39:00,83.6,66.2,29.93,SSE,150,0.0,1.0,56,0.00,,,0.00,Wunderground v.1.15,2013-07-21 20:39:00,
2013-07-21 16:40:00,83.6,66.8,29.93,SSE,150,2.0,3.0,57,0.00,,,0.00,Wunderground v.1.15,2013-07-21 20:40:00,
2013-07-21 16:43:00,83.3,68.0,29.93,SE,141,0.0,3.0,60,0.00,,,0.00,Wunderground v.1.15,2013-07-21 20:43:00,
2013-07-21 16:44:00,83.3,68.4,29.93,SE,141,2.0,2.0,61,0.00,,,0.00,Wunderground v.1.15,2013-07-21 20:44:00,
2013-07-21 16:45:00,83.3,68.4,29.93,SE,126,1.0,3.0,61,0.00,,,0.00,Wunderground v.1.15,2013-07-21 20:45:00,
2013-07-21 16:48:00,83.1,68.3,29.93,ESE,113,2.0,4.0,61,0.00,,,0.00,Wunderground v.1.15,2013-07-21 20:48:00,
2013-07-21 16:49:00,83.0,68.2,29.93,SE,142,4.0,5.0,61,0.00,,,0.00,Wunderground v.1.15,2013-07-21 20:49:00,
2013-07-21 16:50:00,82.9,68.1,29.93,SE,125,3.0,5.0,61,0.00,,,0.00,Wunderground v.1.15,2013-07-21 20:50:00,
2013-07-21 16:51:00,82.7,66.4,29.93,SE,125,2.0,5.0,58,0.00,,,0.00,Wunderground v.1.15,2013-07-21 20:51:00,
2013-07-21 16:53:00,82.2,67.4,29.93,SSE,153,1.0,5.0,61,0.00,,,0.00,Wunderground v.1.15,2013-07-21 20:53:00,
2013-07-21 16:54:00,82.0,67.7,29.93,SE,140,2.0,2.0,62,0.00,,,0.00,Wunderground v.1.15,2013-07-21 20:54:00,
2013-07-21 16:55:00,81.8,68.0,29.93,SE,140,1.0,2.0,63,0.00,,,0.00,Wunderground v.1.15,2013-07-21 20:55:00,
2013-07-21 16:57:00,81.6,67.8,29.93,SE,134,4.0,4.0,63,0.00,,,0.00,Wunderground v.1.15,2013-07-21 20:57:00,
2013-07-21 16:58:00,81.4,68.1,29.93,SE,134,2.0,4.0,64,0.00,,,0.00,Wunderground v.1.15,2013-07-21 20:58:00,
2013-07-21 17:00:00,81.2,67.9,29.93,SE,130,1.0,4.0,64,0.00,,,0.00,Wunderground v.1.15,2013-07-21 21:00:00,
2013-07-21 17:02:00,81.1,67.8,29.93,ESE,111,2.0,4.0,64,0.00,,,0.00,Wunderground v.1.15,2013-07-21 21:02:00,
2013-07-21 17:03:00,81.0,68.1,29.93,ESE,111,0.0,4.0,65,0.00,,,0.00,Wunderground v.1.15,2013-07-21 21:03:00,
2013-07-21 17:05:00,81.1,68.7,29.93,SE,126,4.0,4.0,66,0.00,,,0.00,Wunderground v.1.15,2013-07-21 21:05:00,
2013-07-21 17:07:00,81.4,68.9,29.93,SE,129,0.0,4.0,66,0.00,,,0.00,Wunderground v.1.15,2013-07-21 21:07:00,
2013-07-21 17:08:00,81.6,68.7,29.93,SE,128,1.0,4.0,65,0.00,,,0.00,Wunderground v.1.15,2013-07-21 21:08:00,
2013-07-21 17:10:00,81.9,69.0,29.93,SSE,150,3.0,5.0,65,0.00,,,0.00,Wunderground v.1.15,2013-07-21 21:10:00,
2013-07-21 17:11:00,81.9,68.5,29.93,South,171,5.0,6.0,64,0.00,,,0.00,Wunderground v.1.15,2013-07-21 21:11:00,
2013-07-21 17:12:00,81.9,68.1,29.93,SSE,162,0.0,6.0,63,0.00,,,0.00,Wunderground v.1.15,2013-07-21 21:12:00,
2013-07-21 17:13:00,81.9,68.1,29.93,SSE,162,1.0,6.0,63,0.00,,,0.00,Wunderground v.1.15,2013-07-21 21:13:00,
2013-07-21 17:15:00,81.9,68.5,29.93,SSE,162,1.0,2.0,64,0.00,,,0.00,Wunderground v.1.15,2013-07-21 21:15:00,
2013-07-21 17:16:00,81.9,68.1,29.93,SSE,162,2.0,4.0,63,0.00,,,0.00,Wunderground v.1.15,2013-07-21 21:16:00,
2013-07-21 17:17:00,81.9,68.1,29.93,NNE,26,3.0,4.0,63,0.00,,,0.00,Wunderground v.1.15,2013-07-21 21:17:00,
2013-07-21 17:18:00,81.9,69.0,29.93,ENE,57,1.0,4.0,65,0.00,,,0.00,Wunderground v.1.15,2013-07-21 21:18:00,
2013-07-21 17:20:00,81.9,69.4,29.93,NE,53,1.0,4.0,66,0.00,,,0.00,Wunderground v.1.15,2013-07-21 21:20:00,
2013-07-21 17:21:00,81.9,69.0,29.93,NE,54,0.0,4.0,65,0.00,,,0.00,Wunderground v.1.15,2013-07-21 21:21:00,
2013-07-21 17:22:00,82.0,69.1,29.93,NE,53,1.0,4.0,65,0.00,,,0.00,Wunderground v.1.15,2013-07-21 21:22:00,
2013-07-21 17:24:00,81.9,69.0,29.93,North,11,2.0,4.0,65,0.00,,,0.00,Wunderground v.1.15,2013-07-21 21:24:00,
2013-07-21 17:25:00,81.8,68.9,29.93,North,11,1.0,3.0,65,0.00,,,0.00,Wunderground v.1.15,2013-07-21 21:25:00,
2013-07-21 17:26:00,81.7,69.2,29.93,North,11,0.0,3.0,66,0.00,,,0.00,Wunderground v.1.15,2013-07-21 21:26:00,
2013-07-21 17:27:00,81.6,68.7,29.93,North,5,2.0,3.0,65,0.00,,,0.00,Wunderground v.1.15,2013-07-21 21:27:00,
2013-07-21 17:29:00,81.6,67.8,29.93,North,5,0.0,3.0,63,0.00,,,0.00,Wunderground v.1.15,2013-07-21 21:29:00,
2013-07-21 17:30:00,81.6,65.9,29.93,SW,232,2.0,6.0,59,0.00,,,0.00,Wunderground v.1.15,2013-07-21 21:30:00,
2013-07-21 17:31:00,81.6,65.4,29.93,SW,232,0.0,6.0,58,0.00,,,0.00,Wunderground v.1.15,2013-07-21 21:31:00,
2013-07-21 17:32:00,81.7,66.0,29.93,SW,232,0.0,6.0,59,0.00,,,0.00,Wunderground v.1.15,2013-07-21 21:32:00,
2013-07-21 17:34:00,81.9,65.7,29.93,SW,232,1.0,1.0,58,0.00,,,0.00,Wunderground v.1.15,2013-07-21 21:34:00,
2013-07-21 17:36:00,82.2,66.4,29.93,SW,236,1.0,3.0,59,0.00,,,0.00,Wunderground v.1.15,2013-07-21 21:36:00,
2013-07-21 17:37:00,82.5,65.7,29.93,WSW,241,1.0,4.0,57,0.00,,,0.00,Wunderground v.1.15,2013-07-21 21:37:00,
2013-07-21 17:39:00,82.7,67.4,29.93,SE,146,3.0,4.0,60,0.00,,,0.00,Wunderground v.1.15,2013-07-21 21:39:00,
2013-07-21 17:41:00,82.8,67.5,29.93,SSE,147,2.0,5.0,60,0.00,,,0.00,Wunderground v.1.15,2013-07-21 21:41:00,
2013-07-21 17:42:00,82.9,68.1,29.93,SSE,147,1.0,5.0,61,0.00,,,0.00,Wunderground v.1.15,2013-07-21 21:42:00,
2013-07-21 17:43:00,83.0,68.2,29.93,South,180,3.0,5.0,61,0.00,,,0.00,Wunderground v.1.15,2013-07-21 21:43:00,
2013-07-21 17:44:00,82.9,67.1,29.93,South,180,0.0,2.0,59,0.00,,,0.00,Wunderground v.1.15,2013-07-21 21:44:00,
2013-07-21 17:46:00,82.8,67.0,29.93,SSE,167,4.0,5.0,59,0.00,,,0.00,Wunderground v.1.15,2013-07-21 21:46:00,
2013-07-21 17:47:00,82.9,67.1,29.92,South,174,1.0,5.0,59,0.00,,,0.00,Wunderground v.1.15,2013-07-21 21:47:00,
2013-07-21 17:48:00,82.8,67.5,29.92,SSW,213,1.0,5.0,60,0.00,,,0.00,Wunderground v.1.15,2013-07-21 21:48:00,
2013-07-21 17:49:00,82.8,67.5,29.92,SW,214,2.0,5.0,60,0.00,,,0.00,Wunderground v.1.15,2013-07-21 21:49:00,
2013-07-21 17:51:00,82.7,66.9,29.92,South,169,1.0,6.0,59,0.00,,,0.00,Wunderground v.1.15,2013-07-21 21:51:00,
2013-07-21 17:52:00,82.7,67.4,29.92,South,169,1.0,6.0,60,0.00,,,0.00,Wunderground v.1.15,2013-07-21 21:52:00,
2013-07-21 17:53:00,82.7,67.9,29.92,SSW,205,5.0,6.0,61,0.00,,,0.00,Wunderground v.1.15,2013-07-21 21:53:00,
2013-07-21 17:55:00,82.7,66.4,29.92,South,175,3.0,5.0,58,0.00,,,0.00,Wunderground v.1.15,2013-07-21 21:55:00,
2013-07-21 17:57:00,82.7,67.4,29.92,WSW,241,2.0,5.0,60,0.00,,,0.00,Wunderground v.1.15,2013-07-21 21:57:00,
2013-07-21 17:58:00,82.7,67.9,29.92,SW,223,3.0,5.0,61,0.00,,,0.00,Wunderground v.1.15,2013-07-21 21:58:00,
2013-07-21 18:00:00,82.5,67.2,29.92,SW,223,2.0,5.0,60,0.00,,,0.00,Wunderground v.1.15,2013-07-21 22:00:00,
2013-07-21 18:02:00,82.5,66.2,29.92,SW,217,3.0,5.0,58,0.00,,,0.00,Wunderground v.1.15,2013-07-21 22:02:00,
2013-07-21 18:03:00,82.5,66.7,29.92,SSW,205,1.0,5.0,59,0.00,,,0.00,Wunderground v.1.15,2013-07-21 22:03:00,
2013-07-21 18:05:00,82.6,66.8,29.92,SSW,192,1.0,2.0,59,0.00,,,0.00,Wunderground v.1.15,2013-07-21 22:05:00,
2013-07-21 18:07:00,82.8,66.5,29.93,South,190,3.0,3.0,58,0.00,,,0.00,Wunderground v.1.15,2013-07-21 22:07:00,
2013-07-21 18:08:00,82.9,67.1,29.93,SSW,202,1.0,3.0,59,0.00,,,0.00,Wunderground v.1.15,2013-07-21 22:08:00,
2013-07-21 18:10:00,83.0,67.2,29.93,SSW,202,0.0,4.0,59,0.00,,,0.00,Wunderground v.1.15,2013-07-21 22:10:00,
2013-07-21 18:12:00,83.0,66.2,29.93,SSW,202,1.0,4.0,57,0.00,,,0.00,Wunderground v.1.15,2013-07-21 22:12:00,
2013-07-21 18:13:00,82.9,66.6,29.93,SSW,202,2.0,4.0,58,0.00,,,0.00,Wunderground v.1.15,2013-07-21 22:13:00,
2013-07-21 18:15:00,82.8,67.0,29.93,SSW,202,3.0,3.0,59,0.00,,,0.00,Wunderground v.1.15,2013-07-21 22:15:00,
2013-07-21 18:17:00,82.6,66.8,29.93,SSW,206,3.0,3.0,59,0.00,,,0.00,Wunderground v.1.15,2013-07-21 22:17:00,
2013-07-21 18:18:00,82.5,66.2,29.92,South,182,2.0,3.0,58,0.00,,,0.00,Wunderground v.1.15,2013-07-21 22:18:00,
2013-07-21 18:21:00,82.4,66.1,29.93,SSE,161,0.0,4.0,58,0.00,,,0.00,Wunderground v.1.15,2013-07-21 22:21:00,
2013-07-21 18:22:00,82.4,67.1,29.93,SSE,161,2.0,4.0,60,0.00,,,0.00,Wunderground v.1.15,2013-07-21 22:22:00,
2013-07-21 18:23:00,82.4,67.1,29.93,SSE,161,1.0,4.0,60,0.00,,,0.00,Wunderground v.1.15,2013-07-21 22:23:00,
2013-07-21 18:24:00,82.3,67.0,29.93,South,185,2.0,4.0,60,0.00,,,0.00,Wunderground v.1.15,2013-07-21 22:24:00,
2013-07-21 18:26:00,82.1,66.4,29.93,South,191,0.0,6.0,59,0.00,,,0.00,Wunderground v.1.15,2013-07-21 22:26:00,
2013-07-21 18:27:00,82.1,66.4,29.93,SSW,192,3.0,6.0,59,0.00,,,0.00,Wunderground v.1.15,2013-07-21 22:27:00,
2013-07-21 18:28:00,82.0,66.3,29.92,SSW,192,2.0,6.0,59,0.00,,,0.00,Wunderground v.1.15,2013-07-21 22:28:00,
2013-07-21 18:29:00,82.0,66.3,29.92,SSW,192,0.0,6.0,59,0.00,,,0.00,Wunderground v.1.15,2013-07-21 22:29:00,
2013-07-21 18:30:00,81.2,67.9,29.93,SSW,196,0.0,1.0,64,0.00,,,0.00,Wunderground v.1.15,2013-07-21 22:30:00,
2013-07-21 18:31:00,81.9,66.6,29.93,SSW,198,3.0,6.0,60,0.00,,,0.00,Wunderground v.1.15,2013-07-21 22:31:00,
2013-07-21 18:32:00,81.1,67.8,29.93,SSW,196,1.0,3.0,64,0.00,,,0.00,Wunderground v.1.15,2013-07-21 22:32:00,
2013-07-21 18:33:00,81.8,66.6,29.92,SSW,198,3.0,6.0,60,0.00,,,0.00,Wunderground v.1.15,2013-07-21 22:33:00,
2013-07-21 18:34:00,81.7,66.9,29.92,SSW,198,2.0,6.0,61,0.00,,,0.00,Wunderground v.1.15,2013-07-21 22:34:00,
2013-07-21 18:36:00,81.5,67.2,29.92,SSW,211,0.0,4.0,62,0.00,,,0.00,Wunderground v.1.15,2013-07-21 22:36:00,
2013-07-21 18:38:00,81.5,67.7,29.92,SSW,212,4.0,4.0,63,0.00,,,0.00,Wunderground v.1.15,2013-07-21 22:38:00,
2013-07-21 18:39:00,81.5,67.2,29.92,SSW,212,3.0,4.0,62,0.00,,,0.00,Wunderground v.1.15,2013-07-21 22:39:00,
2013-07-21 18:40:00,81.4,67.1,29.93,SSW,213,0.0,4.0,62,0.00,,,0.00,Wunderground v.1.15,2013-07-21 22:40:00,
2013-07-21 18:42:00,81.2,66.9,29.93,SW,215,1.0,4.0,62,0.00,,,0.00,Wunderground v.1.15,2013-07-21 22:42:00,
2013-07-21 18:43:00,81.2,66.9,29.93,SW,215,0.0,4.0,62,0.00,,,0.00,Wunderground v.1.15,2013-07-21 22:43:00,
2013-07-21 18:44:00,81.2,67.4,29.93,SW,215,0.0,4.0,63,0.00,,,0.00,Wunderground v.1.15,2013-07-21 22:44:00,
2013-07-21 18:45:00,81.3,67.5,29.93,SW,215,2.0,2.0,63,0.00,,,0.00,Wunderground v.1.15,2013-07-21 22:45:00,
2013-07-21 18:47:00,81.3,67.0,29.93,SW,215,1.0,3.0,62,0.00,,,0.00,Wunderground v.1.15,2013-07-21 22:47:00,
2013-07-21 18:48:00,81.3,67.0,29.93,SW,215,2.0,3.0,62,0.00,,,0.00,Wunderground v.1.15,2013-07-21 22:48:00,
2013-07-21 18:49:00,81.3,67.5,29.93,SW,215,0.0,3.0,63,0.00,,,0.00,Wunderground v.1.15,2013-07-21 22:49:00,
2013-07-21 18:50:00,81.3,67.5,29.93,SW,215,0.0,3.0,63,0.00,,,0.00,Wunderground v.1.15,2013-07-21 22:50:00,
2013-07-21 18:53:00,81.1,67.3,29.93,SSW,196,2.0,5.0,63,0.00,,,0.00,Wunderground v.1.15,2013-07-21 22:53:00,
2013-07-21 18:54:00,81.2,67.9,29.93,SSW,196,0.0,1.0,64,0.00,,,0.00,Wunderground v.1.15,2013-07-21 22:54:00,
2013-07-21 18:55:00,81.2,67.9,29.93,SSW,196,0.0,1.0,64,0.00,,,0.00,Wunderground v.1.15,2013-07-21 22:55:00,
2013-07-21 18:58:00,81.1,67.8,29.93,SSW,196,1.0,3.0,64,0.00,,,0.00,Wunderground v.1.15,2013-07-21 22:58:00,
2013-07-21 18:59:00,81.1,67.8,29.93,SSW,196,0.0,3.0,64,0.00,,,0.00,Wunderground v.1.15,2013-07-21 22:59:00,
2013-07-21 19:00:00,81.0,67.7,29.93,SSW,196,1.0,3.0,64,0.00,,,0.00,Wunderground v.1.15,2013-07-21 23:00:00,
2013-07-21 19:03:00,80.9,67.6,29.93,SSW,196,1.0,3.0,64,0.00,,,0.00,Wunderground v.1.15,2013-07-21 23:03:00,
2013-07-21 19:04:00,80.8,67.9,29.93,SSW,196,1.0,1.0,65,0.00,,,0.00,Wunderground v.1.15,2013-07-21 23:04:00,
2013-07-21 19:06:00,80.6,67.7,29.93,SSW,196,1.0,2.0,65,0.00,,,0.00,Wunderground v.1.15,2013-07-21 23:06:00,
2013-07-21 19:08:00,80.5,68.1,29.94,SSW,196,0.0,2.0,66,0.00,,,0.00,Wunderground v.1.15,2013-07-21 23:08:00,
2013-07-21 19:09:00,80.4,68.0,29.93,SSW,196,0.0,2.0,66,0.00,,,0.00,Wunderground v.1.15,2013-07-21 23:09:00,
2013-07-21 19:11:00,80.2,68.2,29.93,SSW,196,0.0,2.0,67,0.00,,,0.00,Wunderground v.1.15,2013-07-21 23:11:00,
2013-07-21 19:13:00,80.2,68.7,29.94,SSW,196,0.0,2.0,68,0.00,,,0.00,Wunderground v.1.15,2013-07-21 23:13:00,
2013-07-21 19:15:00,80.1,68.2,29.94,SSW,196,0.0,0.0,67,0.00,,,0.00,Wunderground v.1.15,2013-07-21 23:15:00,
2013-07-21 19:16:00,80.0,68.5,29.94,SSW,196,2.0,2.0,68,0.00,,,0.00,Wunderground v.1.15,2013-07-21 23:16:00,
2013-07-21 19:18:00,79.6,68.5,29.94,SSW,196,0.0,2.0,69,0.00,,,0.00,Wunderground v.1.15,2013-07-21 23:18:00,
2013-07-21 19:19:00,79.5,68.4,29.94,SSW,196,1.0,2.0,69,0.00,,,0.00,Wunderground v.1.15,2013-07-21 23:19:00,
2013-07-21 19:20:00,79.3,68.2,29.94,SSW,196,0.0,2.0,69,0.00,,,0.00,Wunderground v.1.15,2013-07-21 23:20:00,
2013-07-21 19:21:00,79.1,68.9,29.94,SSW,196,0.0,2.0,71,0.00,,,0.00,Wunderground v.1.15,2013-07-21 23:21:00,
2013-07-21 19:23:00,78.9,68.7,29.94,SSW,196,1.0,2.0,71,0.00,,,0.00,Wunderground v.1.15,2013-07-21 23:23:00,
2013-07-21 19:24:00,78.8,69.4,29.94,SSW,196,0.0,0.0,73,0.00,,,0.00,Wunderground v.1.15,2013-07-21 23:24:00,
2013-07-21 19:25:00,78.8,69.0,29.94,SSW,196,0.0,1.0,72,0.00,,,0.00,Wunderground v.1.15,2013-07-21 23:25:00,
2013-07-21 19:27:00,78.7,68.9,29.94,SSW,196,0.0,1.0,72,0.00,,,0.00,Wunderground v.1.15,2013-07-21 23:27:00,
2013-07-21 19:28:00,78.5,68.7,29.94,SSW,196,0.0,1.0,72,0.00,,,0.00,Wunderground v.1.15,2013-07-21 23:28:00,
2013-07-21 19:29:00,78.5,69.1,29.94,SSW,196,0.0,1.0,73,0.00,,,0.00,Wunderground v.1.15,2013-07-21 23:29:00,
2013-07-21 19:30:00,78.4,69.0,29.94,SSW,196,0.0,1.0,73,0.00,,,0.00,Wunderground v.1.15,2013-07-21 23:30:00,
2013-07-21 19:32:00,78.3,68.9,29.94,SSW,196,1.0,1.0,73,0.00,,,0.00,Wunderground v.1.15,2013-07-21 23:32:00,
2013-07-21 19:34:00,78.0,69.0,29.94,SSW,196,0.0,1.0,74,0.00,,,0.00,Wunderground v.1.15,2013-07-21 23:34:00,
2013-07-21 19:35:00,78.0,68.6,29.94,SSW,196,0.0,1.0,73,0.00,,,0.00,Wunderground v.1.15,2013-07-21 23:35:00,
2013-07-21 19:36:00,77.8,68.8,29.94,SSW,196,0.0,1.0,74,0.00,,,0.00,Wunderground v.1.15,2013-07-21 23:36:00,
2013-07-21 19:37:00,77.7,68.4,29.94,SSW,196,0.0,1.0,73,0.00,,,0.00,Wunderground v.1.15,2013-07-21 23:37:00,
2013-07-21 19:39:00,77.6,68.7,29.94,SSW,196,0.0,1.0,74,0.00,,,0.00,Wunderground v.1.15,2013-07-21 23:39:00,
2013-07-21 19:40:00,77.6,68.7,29.94,SSW,196,0.0,1.0,74,0.00,,,0.00,Wunderground v.1.15,2013-07-21 23:40:00,
2013-07-21 19:41:00,77.6,68.7,29.94,SSW,196,0.0,1.0,74,0.00,,,0.00,Wunderground v.1.15,2013-07-21 23:41:00,
2013-07-21 19:42:00,77.6,68.7,29.94,SSW,196,1.0,1.0,74,0.00,,,0.00,Wunderground v.1.15,2013-07-21 23:42:00,
2013-07-21 19:44:00,77.5,68.6,29.94,SSW,196,1.0,1.0,74,0.00,,,0.00,Wunderground v.1.15,2013-07-21 23:44:00,
2013-07-21 19:45:00,77.5,68.6,29.94,SSW,196,0.0,1.0,74,0.00,,,0.00,Wunderground v.1.15,2013-07-21 23:45:00,
2013-07-21 19:46:00,77.4,68.9,29.94,SSW,196,0.0,1.0,75,0.00,,,0.00,Wunderground v.1.15,2013-07-21 23:46:00,
2013-07-21 19:47:00,77.4,68.9,29.94,SSW,196,1.0,2.0,75,0.00,,,0.00,Wunderground v.1.15,2013-07-21 23:47:00,
2013-07-21 19:49:00,77.3,68.8,29.94,SSW,196,2.0,2.0,75,0.00,,,0.00,Wunderground v.1.15,2013-07-21 23:49:00,
2013-07-21 19:50:00,77.3,68.8,29.94,SSW,196,0.0,2.0,75,0.00,,,0.00,Wunderground v.1.15,2013-07-21 23:50:00,
2013-07-21 19:51:00,77.2,68.7,29.94,SSW,196,2.0,2.0,75,0.00,,,0.00,Wunderground v.1.15,2013-07-21 23:51:00,
2013-07-21 19:52:00,77.2,68.7,29.94,SSW,196,0.0,2.0,75,0.00,,,0.00,Wunderground v.1.15,2013-07-21 23:52:00,
2013-07-21 19:54:00,77.1,68.6,29.94,SSW,196,0.0,1.0,75,0.00,,,0.00,Wunderground v.1.15,2013-07-21 23:54:00,
2013-07-21 19:55:00,77.1,68.9,29.94,SSW,196,0.0,1.0,76,0.00,,,0.00,Wunderground v.1.15,2013-07-21 23:55:00,
2013-07-21 19:56:00,77.1,68.9,29.94,SSW,196,0.0,1.0,76,0.00,,,0.00,Wunderground v.1.15,2013-07-21 23:56:00,
2013-07-21 19:58:00,77.0,68.9,29.94,SSW,196,0.0,2.0,76,0.00,,,0.00,Wunderground v.1.15,2013-07-21 23:58:00,
2013-07-21 19:59:00,77.0,68.9,29.94,SSW,196,0.0,2.0,76,0.00,,,0.00,Wunderground v.1.15,2013-07-21 23:59:00,
2013-07-21 20:00:00,76.9,68.8,29.94,SSW,196,0.0,2.0,76,0.00,,,0.00,Wunderground v.1.15,2013-07-22 00:00:00,
2013-07-21 20:01:00,76.9,68.8,29.94,SSW,196,0.0,2.0,76,0.00,,,0.00,Wunderground v.1.15,2013-07-22 00:01:00,
2013-07-21 20:03:00,76.8,68.7,29.94,SSW,194,0.0,3.0,76,0.00,,,0.00,Wunderground v.1.15,2013-07-22 00:03:00,
2013-07-21 20:04:00,76.8,68.7,29.94,SSW,194,0.0,0.0,76,0.00,,,0.00,Wunderground v.1.15,2013-07-22 00:04:00,
2013-07-21 20:05:00,76.7,68.9,29.94,SSW,194,3.0,3.0,77,0.00,,,0.00,Wunderground v.1.15,2013-07-22 00:05:00,
2013-07-21 20:06:00,76.7,68.9,29.94,SSW,194,0.0,3.0,77,0.00,,,0.00,Wunderground v.1.15,2013-07-22 00:06:00,
2013-07-21 20:08:00,76.6,68.8,29.94,SSW,194,0.0,3.0,77,0.00,,,0.00,Wunderground v.1.15,2013-07-22 00:08:00,
2013-07-21 20:09:00,76.4,68.7,29.94,SSW,194,0.0,3.0,77,0.00,,,0.00,Wunderground v.1.15,2013-07-22 00:09:00,
2013-07-21 20:10:00,76.4,68.7,29.94,SSW,194,0.0,3.0,77,0.00,,,0.00,Wunderground v.1.15,2013-07-22 00:10:00,
2013-07-21 20:12:00,76.4,68.7,29.94,SSW,194,0.0,3.0,77,0.00,,,0.00,Wunderground v.1.15,2013-07-22 00:12:00,
2013-07-21 20:13:00,76.4,68.7,29.94,SSW,194,1.0,3.0,77,0.00,,,0.00,Wunderground v.1.15,2013-07-22 00:13:00,
2013-07-21 20:15:00,76.2,68.5,29.95,SSW,194,0.0,2.0,77,0.00,,,0.00,Wunderground v.1.15,2013-07-22 00:15:00,
2013-07-21 20:16:00,76.2,68.5,29.95,SSW,194,1.0,2.0,77,0.00,,,0.00,Wunderground v.1.15,2013-07-22 00:16:00,
2013-07-21 20:17:00,76.2,68.5,29.95,SSW,194,0.0,2.0,77,0.00,,,0.00,Wunderground v.1.15,2013-07-22 00:17:00,
2013-07-21 20:18:00,76.1,68.4,29.95,SSW,194,0.0,2.0,77,0.00,,,0.00,Wunderground v.1.15,2013-07-22 00:18:00,
2013-07-21 20:20:00,76.1,68.7,29.95,South,171,4.0,5.0,78,0.00,,,0.00,Wunderground v.1.15,2013-07-22 00:20:00,
2013-07-21 20:21:00,76.0,68.3,29.95,South,172,1.0,5.0,77,0.00,,,0.00,Wunderground v.1.15,2013-07-22 00:21:00,
2013-07-21 20:22:00,76.0,68.6,29.95,South,172,0.0,5.0,78,0.00,,,0.00,Wunderground v.1.15,2013-07-22 00:22:00,
2013-07-21 20:23:00,76.0,68.6,29.95,South,172,0.0,5.0,78,0.00,,,0.00,Wunderground v.1.15,2013-07-22 00:23:00,
2013-07-21 20:25:00,76.0,68.6,29.95,South,172,2.0,2.0,78,0.00,,,0.00,Wunderground v.1.15,2013-07-22 00:25:00,
2013-07-21 20:26:00,75.9,68.2,29.95,SE,132,2.0,5.0,77,0.00,,,0.00,Wunderground v.1.15,2013-07-22 00:26:00,
2013-07-21 20:27:00,75.9,68.2,29.95,SE,135,3.0,5.0,77,0.00,,,0.00,Wunderground v.1.15,2013-07-22 00:27:00,
2013-07-21 20:28:00,75.8,68.1,29.95,SE,136,1.0,5.0,77,0.00,,,0.00,Wunderground v.1.15,2013-07-22 00:28:00,
2013-07-21 20:30:00,75.8,68.1,29.95,SE,136,0.0,5.0,77,0.00,,,0.00,Wunderground v.1.15,2013-07-22 00:30:00,
2013-07-21 20:31:00,76.3,70.8,29.95,SE,136,0.0,5.0,83,0.00,,,0.00,Wunderground v.1.15,2013-07-22 00:31:00,
2013-07-21 20:32:00,76.4,70.9,29.95,SE,136,1.0,5.0,83,0.00,,,0.00,Wunderground v.1.15,2013-07-22 00:32:00,
2013-07-21 20:33:00,76.5,70.2,29.95,SE,136,0.0,5.0,81,0.00,,,0.00,Wunderground v.1.15,2013-07-22 00:33:00,
2013-07-21 20:35:00,76.5,69.5,29.95,SE,137,0.0,3.0,79,0.00,,,0.00,Wunderground v.1.15,2013-07-22 00:35:00,
2013-07-21 20:36:00,76.5,69.1,29.95,SE,137,1.0,3.0,78,0.00,,,0.00,Wunderground v.1.15,2013-07-22 00:36:00,
2013-07-21 20:37:00,76.8,71.2,29.95,SE,137,1.0,3.0,83,0.00,,,0.00,Wunderground v.1.15,2013-07-22 00:37:00,
2013-07-21 20:38:00,76.8,71.2,29.95,SE,137,0.0,3.0,83,0.00,,,0.00,Wunderground v.1.15,2013-07-22 00:38:00,
2013-07-21 20:39:00,77.1,70.1,29.95,SE,137,0.0,3.0,79,0.00,,,0.00,Wunderground v.1.15,2013-07-22 00:39:00,
2013-07-21 20:40:00,77.4,71.1,29.95,SE,137,0.0,3.0,81,0.00,,,0.00,Wunderground v.1.15,2013-07-22 00:40:00,
2013-07-21 20:41:00,77.4,69.6,29.95,SE,137,0.0,3.0,77,0.00,,,0.00,Wunderground v.1.15,2013-07-22 00:41:00,
2013-07-21 20:42:00,77.4,68.9,29.95,SE,137,0.0,3.0,75,0.00,,,0.00,Wunderground v.1.15,2013-07-22 00:42:00,
2013-07-21 20:43:00,77.3,68.8,29.95,SE,137,0.0,3.0,75,0.00,,,0.00,Wunderground v.1.15,2013-07-22 00:43:00,
2013-07-21 20:44:00,77.3,68.4,29.95,SE,137,1.0,1.0,74,0.00,,,0.00,Wunderground v.1.15,2013-07-22 00:44:00,
2013-07-21 20:45:00,77.2,68.3,29.95,SE,137,0.0,1.0,74,0.00,,,0.00,Wunderground v.1.15,2013-07-22 00:45:00,
2013-07-21 20:46:00,77.1,68.2,29.95,SE,137,0.0,1.0,74,0.00,,,0.00,Wunderground v.1.15,2013-07-22 00:46:00,
2013-07-21 20:48:00,76.9,68.0,29.95,SE,137,0.0,1.0,74,0.00,,,0.00,Wunderground v.1.15,2013-07-22 00:48:00,
2013-07-21 20:49:00,76.8,68.3,29.95,SE,137,0.0,1.0,75,0.00,,,0.00,Wunderground v.1.15,2013-07-22 00:49:00,
2013-07-21 20:50:00,76.6,68.1,29.95,SE,137,0.0,1.0,75,0.00,,,0.00,Wunderground v.1.15,2013-07-22 00:50:00,
2013-07-21 20:53:00,76.3,68.2,29.95,SE,137,1.0,1.0,76,0.00,,,0.00,Wunderground v.1.15,2013-07-22 00:53:00,
2013-07-21 20:54:00,76.1,68.0,29.95,SE,137,1.0,2.0,76,0.00,,,0.00,Wunderground v.1.15,2013-07-22 00:54:00,
2013-07-21 20:56:00,75.9,67.8,29.96,SE,137,0.0,2.0,76,0.00,,,0.00,Wunderground v.1.15,2013-07-22 00:56:00,
2013-07-21 20:58:00,75.7,68.0,29.96,SE,137,0.0,2.0,77,0.00,,,0.00,Wunderground v.1.15,2013-07-22 00:58:00,
2013-07-21 20:59:00,75.6,67.9,29.95,SE,137,1.0,2.0,77,0.00,,,0.00,Wunderground v.1.15,2013-07-22 00:59:00,
2013-07-21 21:00:00,75.6,67.9,29.96,ESE,102,2.0,3.0,77,0.00,,,0.00,Wunderground v.1.15,2013-07-22 01:00:00,
2013-07-21 21:01:00,75.5,67.8,29.96,ESE,102,0.0,3.0,77,0.00,,,0.00,Wunderground v.1.15,2013-07-22 01:01:00,
2013-07-21 21:03:00,75.4,67.7,29.96,ESE,102,0.0,3.0,77,0.00,,,0.00,Wunderground v.1.15,2013-07-22 01:03:00,
2013-07-21 21:04:00,75.4,67.7,29.96,ESE,102,0.0,1.0,77,0.00,,,0.00,Wunderground v.1.15,2013-07-22 01:04:00,
2013-07-21 21:05:00,75.4,68.1,29.96,ESE,102,0.0,1.0,78,0.00,,,0.00,Wunderground v.1.15,2013-07-22 01:05:00,
2013-07-21 21:06:00,75.3,68.0,29.96,ESE,102,0.0,1.0,78,0.00,,,0.00,Wunderground v.1.15,2013-07-22 01:06:00,
2013-07-21 21:08:00,75.3,68.0,29.96,ESE,102,0.0,1.0,78,0.00,,,0.00,Wunderground v.1.15,2013-07-22 01:08:00,
2013-07-21 21:09:00,75.3,68.0,29.97,ESE,102,0.0,1.0,78,0.00,,,0.00,Wunderground v.1.15,2013-07-22 01:09:00,
2013-07-21 21:10:00,75.3,68.0,29.97,ESE,102,0.0,1.0,78,0.00,,,0.00,Wunderground v.1.15,2013-07-22 01:10:00,
2013-07-21 21:12:00,75.3,68.0,29.97,ESE,102,0.0,1.0,78,0.00,,,0.00,Wunderground v.1.15,2013-07-22 01:12:00,
2013-07-21 21:13:00,75.3,68.0,29.97,ESE,102,0.0,1.0,78,0.00,,,0.00,Wunderground v.1.15,2013-07-22 01:13:00,
2013-07-21 21:14:00,75.3,68.0,29.97,ESE,113,0.0,1.0,78,0.00,,,0.00,Wunderground v.1.15,2013-07-22 01:14:00,
2013-07-21 21:15:00,75.2,67.9,29.97,ESE,113,1.0,1.0,78,0.00,,,0.00,Wunderground v.1.15,2013-07-22 01:15:00,
2013-07-21 21:17:00,75.2,67.9,29.97,ESE,113,0.0,3.0,78,0.00,,,0.00,Wunderground v.1.15,2013-07-22 01:17:00,
2013-07-21 21:19:00,75.2,67.9,29.97,East,97,2.0,3.0,78,0.00,,,0.00,Wunderground v.1.15,2013-07-22 01:19:00,
2013-07-21 21:20:00,75.2,67.5,29.97,East,97,2.0,3.0,77,0.00,,,0.00,Wunderground v.1.15,2013-07-22 01:20:00,
2013-07-21 21:22:00,75.2,68.2,29.97,East,97,0.0,3.0,79,0.00,,,0.00,Wunderground v.1.15,2013-07-22 01:22:00,
2013-07-21 21:24:00,75.1,68.5,29.98,East,97,0.0,3.0,80,0.00,,,0.00,Wunderground v.1.15,2013-07-22 01:24:00,
2013-07-21 21:25:00,75.0,68.4,29.98,East,97,0.0,1.0,80,0.00,,,0.00,Wunderground v.1.15,2013-07-22 01:25:00,
2013-07-21 21:26:00,75.0,68.4,29.98,East,97,0.0,1.0,80,0.00,,,0.00,Wunderground v.1.15,2013-07-22 01:26:00,
2013-07-21 21:27:00,74.9,68.3,29.98,East,97,1.0,1.0,80,0.00,,,0.00,Wunderground v.1.15,2013-07-22 01:27:00,
2013-07-21 21:29:00,74.8,68.2,29.98,East,97,0.0,1.0,80,0.00,,,0.00,Wunderground v.1.15,2013-07-22 01:29:00,
2013-07-21 21:30:00,74.7,68.1,29.98,East,97,0.0,1.0,80,0.00,,,0.00,Wunderground v.1.15,2013-07-22 01:30:00,
2013-07-21 21:31:00,74.7,68.1,29.98,East,97,0.0,1.0,80,0.00,,,0.00,Wunderground v.1.15,2013-07-22 01:31:00,
2013-07-21 21:32:00,74.6,67.7,29.98,East,97,0.0,1.0,79,0.00,,,0.00,Wunderground v.1.15,2013-07-22 01:32:00,
2013-07-21 21:34:00,74.5,67.2,29.98,East,97,0.0,1.0,78,0.00,,,0.00,Wunderground v.1.15,2013-07-22 01:34:00,
2013-07-21 21:35:00,74.5,67.2,29.98,East,97,0.0,1.0,78,0.00,,,0.00,Wunderground v.1.15,2013-07-22 01:35:00,
2013-07-21 21:36:00,74.5,67.2,29.98,East,97,0.0,2.0,78,0.00,,,0.00,Wunderground v.1.15,2013-07-22 01:36:00,
2013-07-21 21:37:00,74.4,67.1,29.98,East,97,1.0,2.0,78,0.00,,,0.00,Wunderground v.1.15,2013-07-22 01:37:00,
2013-07-21 21:39:00,74.4,66.7,29.98,East,97,0.0,2.0,77,0.00,,,0.00,Wunderground v.1.15,2013-07-22 01:39:00,
2013-07-21 21:40:00,74.4,66.7,29.98,East,97,0.0,2.0,77,0.00,,,0.00,Wunderground v.1.15,2013-07-22 01:40:00,
2013-07-21 21:41:00,74.4,66.7,29.98,East,97,0.0,2.0,77,0.00,,,0.00,Wunderground v.1.15,2013-07-22 01:41:00,
2013-07-21 21:43:00,74.4,67.1,29.98,East,97,0.0,2.0,78,0.00,,,0.00,Wunderground v.1.15,2013-07-22 01:43:00,
2013-07-21 21:44:00,74.4,67.1,29.98,East,97,2.0,2.0,78,0.00,,,0.00,Wunderground v.1.15,2013-07-22 01:44:00,
2013-07-21 21:45:00,74.4,66.3,29.99,East,97,0.0,1.0,76,0.00,,,0.00,Wunderground v.1.15,2013-07-22 01:45:00,
2013-07-21 21:46:00,74.4,66.7,29.99,East,97,0.0,1.0,77,0.00,,,0.00,Wunderground v.1.15,2013-07-22 01:46:00,
2013-07-21 21:49:00,74.3,67.4,29.99,East,97,0.0,1.0,79,0.00,,,0.00,Wunderground v.1.15,2013-07-22 01:49:00,
2013-07-21 21:50:00,74.2,66.9,29.99,East,97,0.0,1.0,78,0.00,,,0.00,Wunderground v.1.15,2013-07-22 01:50:00,
2013-07-21 21:51:00,74.2,66.9,29.98,East,97,0.0,1.0,78,0.00,,,0.00,Wunderground v.1.15,2013-07-22 01:51:00,
2013-07-21 21:52:00,74.2,67.3,29.98,East,97,0.0,1.0,79,0.00,,,0.00,Wunderground v.1.15,2013-07-22 01:52:00,
2013-07-21 21:54:00,74.1,66.8,29.99,East,97,0.0,2.0,78,0.00,,,0.00,Wunderground v.1.15,2013-07-22 01:54:00,
2013-07-21 21:55:00,74.0,66.3,29.99,East,97,0.0,1.0,77,0.00,,,0.00,Wunderground v.1.15,2013-07-22 01:55:00,
2013-07-21 21:56:00,74.0,66.3,29.99,East,97,1.0,3.0,77,0.00,,,0.00,Wunderground v.1.15,2013-07-22 01:56:00,
2013-07-21 21:57:00,73.9,65.9,29.99,East,97,0.0,3.0,76,0.00,,,0.00,Wunderground v.1.15,2013-07-22 01:57:00,
2013-07-21 21:59:00,73.9,66.2,29.99,East,97,0.0,3.0,77,0.00,,,0.00,Wunderground v.1.15,2013-07-22 01:59:00,
2013-07-21 22:00:00,73.9,66.2,29.99,East,97,0.0,3.0,77,0.00,,,0.00,Wunderground v.1.15,2013-07-22 02:00:00,
2013-07-21 22:01:00,73.9,66.2,29.99,East,97,0.0,3.0,77,0.00,,,0.00,Wunderground v.1.15,2013-07-22 02:01:00,
2013-07-21 22:02:00,73.9,66.2,29.99,East,97,0.0,3.0,77,0.00,,,0.00,Wunderground v.1.15,2013-07-22 02:02:00,
2013-07-21 22:04:00,73.8,66.1,29.99,East,97,1.0,1.0,77,0.00,,,0.00,Wunderground v.1.15,2013-07-22 02:04:00,
2013-07-21 22:05:00,73.8,66.1,29.99,East,97,0.0,1.0,77,0.00,,,0.00,Wunderground v.1.15,2013-07-22 02:05:00,
2013-07-21 22:07:00,73.8,66.1,29.99,East,97,1.0,1.0,77,0.00,,,0.00,Wunderground v.1.15,2013-07-22 02:07:00,
2013-07-21 22:09:00,73.7,66.0,29.99,East,97,0.0,1.0,77,0.00,,,0.00,Wunderground v.1.15,2013-07-22 02:09:00,
2013-07-21 22:10:00,73.6,65.9,29.99,East,97,0.0,1.0,77,0.00,,,0.00,Wunderground v.1.15,2013-07-22 02:10:00,
2013-07-21 22:11:00,73.6,65.9,29.99,East,97,0.0,1.0,77,0.00,,,0.00,Wunderground v.1.15,2013-07-22 02:11:00,
2013-07-21 22:12:00,73.6,65.9,29.99,East,97,0.0,1.0,77,0.00,,,0.00,Wunderground v.1.15,2013-07-22 02:12:00,
2013-07-21 22:14:00,73.5,65.8,29.99,East,97,0.0,0.0,77,0.00,,,0.00,Wunderground v.1.15,2013-07-22 02:14:00,
2013-07-21 22:15:00,73.5,65.8,29.99,East,97,0.0,1.0,77,0.00,,,0.00,Wunderground v.1.15,2013-07-22 02:15:00,
2013-07-21 22:16:00,73.4,65.7,29.99,East,97,1.0,2.0,77,0.00,,,0.00,Wunderground v.1.15,2013-07-22 02:16:00,
2013-07-21 22:17:00,73.4,65.7,29.99,East,97,0.0,2.0,77,0.00,,,0.00,Wunderground v.1.15,2013-07-22 02:17:00,
2013-07-21 22:18:00,73.3,65.7,29.99,East,97,0.0,2.0,77,0.00,,,0.00,Wunderground v.1.15,2013-07-22 02:18:00,
2013-07-21 22:19:00,73.3,65.7,29.99,East,97,0.0,2.0,77,0.00,,,0.00,Wunderground v.1.15,2013-07-22 02:19:00,
2013-07-21 22:20:00,73.3,65.7,29.99,East,97,0.0,2.0,77,0.00,,,0.00,Wunderground v.1.15,2013-07-22 02:20:00,
2013-07-21 22:21:00,73.3,65.7,29.99,East,97,0.0,2.0,77,0.00,,,0.00,Wunderground v.1.15,2013-07-22 02:21:00,
2013-07-21 22:22:00,73.2,65.6,29.99,East,97,0.0,2.0,77,0.00,,,0.00,Wunderground v.1.15,2013-07-22 02:22:00,
2013-07-21 22:23:00,73.2,65.6,29.99,East,97,0.0,2.0,77,0.00,,,0.00,Wunderground v.1.15,2013-07-22 02:23:00,
2013-07-21 22:24:00,73.2,65.9,29.99,East,97,0.0,0.0,78,0.00,,,0.00,Wunderground v.1.15,2013-07-22 02:24:00,
2013-07-21 22:25:00,73.2,66.3,29.99,East,97,0.0,0.0,79,0.00,,,0.00,Wunderground v.1.15,2013-07-22 02:25:00,
2013-07-21 22:26:00,73.2,65.9,29.99,East,97,0.0,0.0,78,0.00,,,0.00,Wunderground v.1.15,2013-07-22 02:26:00,
2013-07-21 22:27:00,73.1,66.2,29.99,East,97,0.0,1.0,79,0.00,,,0.00,Wunderground v.1.15,2013-07-22 02:27:00,
2013-07-21 22:28:00,73.1,66.2,29.99,East,97,0.0,1.0,79,0.00,,,0.00,Wunderground v.1.15,2013-07-22 02:28:00,
2013-07-21 22:30:00,73.0,66.1,29.99,East,97,0.0,1.0,79,0.00,,,0.00,Wunderground v.1.15,2013-07-22 02:30:00,
2013-07-21 22:31:00,72.9,66.4,29.99,East,97,0.0,1.0,80,0.00,,,0.00,Wunderground v.1.15,2013-07-22 02:31:00,
2013-07-21 22:33:00,72.9,66.4,29.99,East,97,0.0,1.0,80,0.00,,,0.00,Wunderground v.1.15,2013-07-22 02:33:00,
2013-07-21 22:35:00,72.8,66.3,29.99,East,97,0.0,0.0,80,0.00,,,0.00,Wunderground v.1.15,2013-07-22 02:35:00,
2013-07-21 22:36:00,72.7,66.2,29.99,East,97,0.0,0.0,80,0.00,,,0.00,Wunderground v.1.15,2013-07-22 02:36:00,
2013-07-21 22:38:00,72.6,66.1,29.98,East,97,0.0,0.0,80,0.00,,,0.00,Wunderground v.1.15,2013-07-22 02:38:00,
2013-07-21 22:40:00,72.6,66.1,29.98,East,97,0.0,0.0,80,0.00,,,0.00,Wunderground v.1.15,2013-07-22 02:40:00,
2013-07-21 22:41:00,72.5,66.3,29.98,East,97,0.0,0.0,81,0.00,,,0.00,Wunderground v.1.15,2013-07-22 02:41:00,
2013-07-21 22:43:00,72.4,66.2,29.99,East,97,0.0,0.0,81,0.00,,,0.00,Wunderground v.1.15,2013-07-22 02:43:00,
2013-07-21 22:44:00,72.4,66.2,29.99,East,97,0.0,0.0,81,0.00,,,0.00,Wunderground v.1.15,2013-07-22 02:44:00,
2013-07-21 22:45:00,72.4,66.6,29.99,East,97,0.0,0.0,82,0.00,,,0.00,Wunderground v.1.15,2013-07-22 02:45:00,
2013-07-21 22:47:00,72.3,66.5,29.99,East,97,0.0,0.0,82,0.00,,,0.00,Wunderground v.1.15,2013-07-22 02:47:00,
2013-07-21 22:48:00,72.3,66.5,29.99,East,97,0.0,0.0,82,0.00,,,0.00,Wunderground v.1.15,2013-07-22 02:48:00,
2013-07-21 22:49:00,72.2,66.4,29.99,East,97,0.0,0.0,82,0.00,,,0.00,Wunderground v.1.15,2013-07-22 02:49:00,
2013-07-21 22:50:00,72.2,66.4,29.99,East,97,0.0,0.0,82,0.00,,,0.00,Wunderground v.1.15,2013-07-22 02:50:00,
2013-07-21 22:52:00,72.2,66.4,29.99,East,97,0.0,0.0,82,0.00,,,0.00,Wunderground v.1.15,2013-07-22 02:52:00,
2013-07-21 22:53:00,72.1,66.3,29.99,East,97,0.0,0.0,82,0.00,,,0.00,Wunderground v.1.15,2013-07-22 02:53:00,
2013-07-21 22:54:00,72.0,66.2,29.99,East,97,0.0,0.0,82,0.00,,,0.00,Wunderground v.1.15,2013-07-22 02:54:00,
2013-07-21 22:55:00,72.0,66.2,29.99,East,97,0.0,0.0,82,0.00,,,0.00,Wunderground v.1.15,2013-07-22 02:55:00,
2013-07-21 22:57:00,72.0,66.2,29.99,East,97,0.0,0.0,82,0.00,,,0.00,Wunderground v.1.15,2013-07-22 02:57:00,
2013-07-21 22:58:00,72.0,66.2,29.99,East,97,0.0,0.0,82,0.00,,,0.00,Wunderground v.1.15,2013-07-22 02:58:00,
2013-07-21 22:59:00,72.0,65.8,29.99,East,97,0.0,0.0,81,0.00,,,0.00,Wunderground v.1.15,2013-07-22 02:59:00,
2013-07-21 23:00:00,71.9,65.8,29.99,East,97,0.0,0.0,81,0.00,,,0.00,Wunderground v.1.15,2013-07-22 03:00:00,
2013-07-21 23:02:00,71.9,65.8,29.99,East,97,0.0,0.0,81,0.00,,,0.00,Wunderground v.1.15,2013-07-22 03:02:00,
2013-07-21 23:03:00,71.8,65.7,29.99,East,97,0.0,0.0,81,0.00,,,0.00,Wunderground v.1.15,2013-07-22 03:03:00,
2013-07-21 23:05:00,71.8,65.7,29.99,East,97,0.0,0.0,81,0.00,,,0.00,Wunderground v.1.15,2013-07-22 03:05:00,
2013-07-21 23:07:00,71.8,66.0,29.99,East,97,0.0,0.0,82,0.00,,,0.00,Wunderground v.1.15,2013-07-22 03:07:00,
2013-07-21 23:08:00,71.7,66.3,29.99,East,97,0.0,0.0,83,0.00,,,0.00,Wunderground v.1.15,2013-07-22 03:08:00,
2013-07-21 23:10:00,71.7,66.6,29.99,East,97,0.0,0.0,84,0.00,,,0.00,Wunderground v.1.15,2013-07-22 03:10:00,
2013-07-21 23:12:00,71.5,66.4,29.99,East,97,0.0,0.0,84,0.00,,,0.00,Wunderground v.1.15,2013-07-22 03:12:00,
2013-07-21 23:13:00,71.5,66.4,29.99,East,97,0.0,0.0,84,0.00,,,0.00,Wunderground v.1.15,2013-07-22 03:13:00,
2013-07-21 23:14:00,71.4,66.3,29.99,East,97,0.0,0.0,84,0.00,,,0.00,Wunderground v.1.15,2013-07-22 03:14:00,
2013-07-21 23:15:00,71.3,66.6,29.99,East,97,0.0,0.0,85,0.00,,,0.00,Wunderground v.1.15,2013-07-22 03:15:00,
2013-07-21 23:17:00,71.2,66.5,29.99,East,97,0.0,1.0,85,0.00,,,0.00,Wunderground v.1.15,2013-07-22 03:17:00,
2013-07-21 23:18:00,71.1,66.4,29.99,East,97,0.0,1.0,85,0.00,,,0.00,Wunderground v.1.15,2013-07-22 03:18:00,
2013-07-21 23:19:00,71.0,66.3,29.99,East,97,0.0,1.0,85,0.00,,,0.00,Wunderground v.1.15,2013-07-22 03:19:00,
2013-07-21 23:20:00,70.9,66.2,29.99,East,97,0.0,1.0,85,0.00,,,0.00,Wunderground v.1.15,2013-07-22 03:20:00,
2013-07-21 23:22:00,70.8,66.1,29.99,East,97,0.0,1.0,85,0.00,,,0.00,Wunderground v.1.15,2013-07-22 03:22:00,
2013-07-21 23:23:00,70.7,66.0,29.99,East,97,0.0,1.0,85,0.00,,,0.00,Wunderground v.1.15,2013-07-22 03:23:00,
2013-07-21 23:24:00,70.7,66.3,29.99,East,97,0.0,1.0,86,0.00,,,0.00,Wunderground v.1.15,2013-07-22 03:24:00,
2013-07-21 23:25:00,70.6,65.9,29.99,East,97,0.0,0.0,85,0.00,,,0.00,Wunderground v.1.15,2013-07-22 03:25:00,
2013-07-21 23:26:00,70.5,66.1,29.99,East,97,0.0,0.0,86,0.00,,,0.00,Wunderground v.1.15,2013-07-22 03:26:00,
2013-07-21 23:27:00,70.4,66.0,29.99,East,97,0.0,0.0,86,0.00,,,0.00,Wunderground v.1.15,2013-07-22 03:27:00,
2013-07-21 23:28:00,70.4,66.0,29.99,East,97,0.0,0.0,86,0.00,,,0.00,Wunderground v.1.15,2013-07-22 03:28:00,
2013-07-21 23:29:00,70.4,66.0,29.99,East,97,0.0,0.0,86,0.00,,,0.00,Wunderground v.1.15,2013-07-22 03:29:00,
2013-07-21 23:30:00,70.4,66.0,29.99,East,97,0.0,0.0,86,0.00,,,0.00,Wunderground v.1.15,2013-07-22 03:30:00,
2013-07-21 23:31:00,70.3,65.9,29.99,East,97,0.0,0.0,86,0.00,,,0.00,Wunderground v.1.15,2013-07-22 03:31:00,
2013-07-21 23:32:00,70.2,65.8,29.99,East,97,0.0,0.0,86,0.00,,,0.00,Wunderground v.1.15,2013-07-22 03:32:00,
2013-07-21 23:33:00,70.2,65.8,29.99,East,97,0.0,0.0,86,0.00,,,0.00,Wunderground v.1.15,2013-07-22 03:33:00,
2013-07-21 23:34:00,70.2,65.8,29.99,East,97,0.0,0.0,86,0.00,,,0.00,Wunderground v.1.15,2013-07-22 03:34:00,
2013-07-21 23:35:00,70.1,65.7,29.99,East,97,0.0,0.0,86,0.00,,,0.00,Wunderground v.1.15,2013-07-22 03:35:00,
2013-07-21 23:36:00,70.1,65.7,29.99,East,97,0.0,0.0,86,0.00,,,0.00,Wunderground v.1.15,2013-07-22 03:36:00,
2013-07-21 23:37:00,70.1,65.7,29.99,East,97,0.0,1.0,86,0.00,,,0.00,Wunderground v.1.15,2013-07-22 03:37:00,
2013-07-21 23:38:00,70.0,65.6,29.99,East,97,0.0,1.0,86,0.00,,,0.00,Wunderground v.1.15,2013-07-22 03:38:00,
2013-07-21 23:39:00,70.0,66.0,29.99,East,97,0.0,1.0,87,0.00,,,0.00,Wunderground v.1.15,2013-07-22 03:39:00,
2013-07-21 23:40:00,69.3,65.3,29.99,East,97,0.0,0.0,87,0.00,,,0.00,Wunderground v.1.15,2013-07-22 03:40:00,
2013-07-21 23:41:00,70.0,66.0,29.99,East,97,0.0,1.0,87,0.00,,,0.00,Wunderground v.1.15,2013-07-22 03:41:00,
2013-07-21 23:42:00,69.3,65.3,29.99,East,97,0.0,1.0,87,0.00,,,0.00,Wunderground v.1.15,2013-07-22 03:42:00,
2013-07-21 23:43:00,69.9,65.9,29.99,East,97,0.0,1.0,87,0.00,,,0.00,Wunderground v.1.15,2013-07-22 03:43:00,
2013-07-21 23:44:00,69.9,65.9,29.99,East,97,0.0,1.0,87,0.00,,,0.00,Wunderground v.1.15,2013-07-22 03:44:00,
2013-07-21 23:46:00,69.8,65.8,29.99,East,97,0.0,1.0,87,0.00,,,0.00,Wunderground v.1.15,2013-07-22 03:46:00,
2013-07-21 23:48:00,69.8,65.8,30.00,East,97,0.0,1.0,87,0.00,,,0.00,Wunderground v.1.15,2013-07-22 03:48:00,
2013-07-21 23:50:00,69.7,65.3,30.00,East,97,0.0,1.0,86,0.00,,,0.00,Wunderground v.1.15,2013-07-22 03:50:00,
2013-07-21 23:51:00,69.6,65.2,29.99,East,97,0.0,1.0,86,0.00,,,0.00,Wunderground v.1.15,2013-07-22 03:51:00,
2013-07-21 23:53:00,69.6,65.2,29.99,East,97,0.0,1.0,86,0.00,,,0.00,Wunderground v.1.15,2013-07-22 03:53:00,
2013-07-21 23:54:00,69.5,65.1,30.00,East,97,1.0,1.0,86,0.00,,,0.00,Wunderground v.1.15,2013-07-22 03:54:00,
2013-07-21 23:55:00,69.5,65.1,30.00,East,97,0.0,0.0,86,0.00,,,0.00,Wunderground v.1.15,2013-07-22 03:55:00,
2013-07-21 23:56:00,69.4,65.4,30.00,East,97,0.0,1.0,87,0.00,,,0.00,Wunderground v.1.15,2013-07-22 03:56:00,
2013-07-21 23:57:00,69.4,65.4,29.99,East,97,0.0,1.0,87,0.00,,,0.00,Wunderground v.1.15,2013-07-22 03:57:00,
2013-07-21 23:58:00,69.4,65.4,29.99,East,97,0.0,1.0,87,0.00,,,0.00,Wunderground v.1.15,2013-07-22 03:58:00,
2013-07-21 23:59:00,69.4,65.4,29.99,East,97,0.0,1.0,87,0.00,,,0.00,Wunderground v.1.15,2013-07-22 03:59:00,